GFSNE_500_rhum_000.txt.gz
RH
98 96 95 95 86 76 56 73 61 38 28 66 73 75 53 52 55 53 51 68 77 78 82 87 86 82 87 86 93 94 85 48 28 14 7 5 6 10
97 97 98 98 94 80 87 62 56 83 46 42 49 51 55 50 77 59 56 69 76 77 87 91 83 80 84 86 92 90 64 32 18 8 5 7 9 9
94 96 96 99 98 89 54 49 88 62 50 33 39 45 46 55 94 54 61 69 68 80 76 80 86 85 92 93 91 80 41 25 9 6 7 10 10 12
96 95 95 96 85 59 65 96 98 57 43 36 53 59 54 88 94 70 74 74 76 75 82 88 91 93 98 99 96 58 32 13 6 7 10 9 14 16
94 93 94 97 90 95 98 98 98 96 55 46 75 61 77 98 97 92 91 85 85 92 90 83 93 92 98 100 83 40 21 6 6 11 10 14 20 22
87 95 96 88 97 98 100 99 97 98 92 94 76 69 94 99 92 97 96 93 99 100 89 81 85 94 100 100 64 31 10 5 9 12 15 18 25 23
80 88 96 96 96 96 97 99 97 97 97 97 75 94 98 94 96 99 96 95 100 100 90 87 92 91 100 96 44 18 4 6 12 14 18 19 26 28
83 84 94 97 95 96 98 97 98 97 97 92 96 96 98 97 98 95 95 99 100 100 100 95 98 97 100 74 29 7 5 10 12 22 20 20 26 31
98 99 94 98 98 98 95 96 98 98 99 98 96 97 93 97 99 92 96 100 100 99 98 98 99 94 94 55 15 3 9 10 18 27 27 26 31 35
100 100 97 98 98 96 96 93 98 99 98 100 96 99 97 98 98 94 99 97 95 100 100 100 98 98 90 35 6 4 8 11 25 27 30 37 41 43
82 99 97 97 91 95 95 85 96 99 97 97 99 98 98 98 99 99 100 95 98 100 100 99 100 100 62 17 3 6 8 19 22 24 30 45 48 55
99 99 100 98 97 97 96 95 86 91 99 97 97 97 98 99 98 100 100 100 98 99 100 100 100 95 26 4 3 8 12 19 20 21 27 50 64 71
92 98 99 99 97 96 97 96 88 93 98 98 100 99 97 98 99 100 100 100 100 100 100 100 99 61 9 3 7 11 14 19 26 31 23 41 72 78
83 96 99 98 97 93 96 89 96 99 99 100 99 99 96 98 100 100 100 100 100 100 100 100 95 30 4 7 10 14 18 25 34 34 28 35 68 88
87 92 90 98 98 81 89 99 99 99 99 95 96 98 99 98 99 100 100 100 100 100 100 100 64 9 4 9 14 14 21 39 41 39 34 39 68 91
78 77 79 98 100 100 94 89 100 99 100 100 100 97 99 100 100 100 100 100 99 100 100 92 19 3 9 11 15 21 22 25 36 38 38 43 70 74
70 74 93 99 100 98 98 92 98 98 100 100 92 99 100 100 100 100 100 100 99 100 100 44 4 6 11 14 17 26 21 21 30 38 53 43 66 62
58 63 80 95 100 97 98 100 99 99 98 100 98 100 100 100 100 100 100 99 100 100 76 15 4 8 11 13 15 29 23 28 31 46 49 41 39 57
84 76 66 99 99 96 99 100 100 99 97 100 100 100 100 100 100 99 100 100 98 94 29 5 7 12 16 22 20 23 39 34 34 35 36 42 56 76
100 98 85 96 98 99 100 99 99 99 100 100 100 100 100 100 100 100 100 100 99 62 8 5 11 16 19 20 13 18 38 41 45 48 62 47 41 52
100 100 98 86 97 96 99 100 100 99 99 100 100 98 100 100 100 100 100 100 85 21 6 8 15 17 19 14 19 25 33 39 44 55 63 54 50 64
100 100 100 85 97 100 100 100 100 100 100 100 98 100 100 100 97 100 100 96 45 9 6 14 16 18 18 21 26 28 33 36 50 55 66 80 90 98
100 100 100 99 99 100 100 100 100 100 100 100 100 100 100 94 97 99 100 69 15 5 11 15 17 17 20 25 25 24 38 42 58 90 100 100 100 100

GFSNE_500_rhum_003.txt.gz
RH
87 98 95 92 94 89 97 95 92 84 91 86 98 98 98 99 92 88 77 98 95 97 89 98 96 95 88 84 93 94 96 96 89 88 62 31 13 5
95 96 98 100 94 90 99 100 96 92 82 97 94 91 96 98 99 98 97 97 99 100 100 100 94 85 90 97 100 89 91 91 83 80 40 19 5 4
81 81 84 100 96 99 97 96 100 96 82 71 86 94 100 99 99 96 99 97 100 100 99 96 93 89 100 100 92 89 93 83 81 60 29 5 3 4
54 58 71 98 100 88 86 98 98 100 94 82 95 97 99 94 93 96 96 89 96 95 100 98 93 100 100 95 84 88 85 83 82 37 8 3 4 7
68 100 100 86 85 91 100 91 92 99 98 93 96 98 100 98 95 82 88 94 99 95 100 94 100 100 94 90 87 88 87 88 59 18 2 3 7 9
72 90 100 93 81 87 100 96 99 96 99 99 98 98 99 100 100 99 95 99 100 100 100 100 93 100 93 93 86 86 92 84 30 3 2 6 8 15
73 82 87 91 100 81 98 96 100 98 98 100 99 98 98 99 100 100 97 96 99 100 99 95 100 96 94 97 92 92 94 57 9 2 5 8 14 16
75 85 97 100 100 86 85 94 97 98 98 98 99 99 98 99 99 99 97 97 83 97 99 100 92 97 96 92 92 95 83 18 2 4 7 11 19 20
92 88 81 99 97 100 100 91 97 92 100 99 99 99 94 100 100 97 98 97 96 98 100 100 94 99 95 90 90 93 38 3 3 7 10 19 20 26
76 77 56 79 100 100 100 93 88 96 98 98 99 99 97 96 99 100 98 98 98 100 100 92 90 94 94 90 93 72 6 3 6 10 15 17 21 30
68 59 91 88 100 100 96 99 98 100 99 99 99 99 98 98 98 99 99 99 100 98 100 88 90 92 92 92 88 27 2 6 10 12 14 16 24 31
42 55 97 100 100 100 99 97 99 100 100 98 99 98 98 98 100 99 100 100 99 98 100 86 92 91 93 95 68 6 4 8 13 13 16 20 29 35
33 76 100 100 99 89 100 99 100 99 100 99 100 99 98 98 98 98 99 99 100 91 94 92 96 93 94 89 14 4 7 12 12 18 21 25 33 34
52 78 88 100 100 93 100 99 99 100 99 100 100 100 98 100 100 97 96 100 94 92 96 94 99 95 96 36 4 6 12 13 17 26 25 28 34 37
47 58 69 100 96 96 100 100 99 99 100 100 100 99 100 98 100 98 99 100 91 89 92 100 97 95 80 5 6 12 14 18 21 24 26 31 44 36
57 72 97 100 98 100 100 98 100 100 100 100 100 100 99 99 99 100 100 99 85 91 99 96 92 97 19 4 10 16 16 12 12 22 27 30 35 47
60 74 95 100 98 98 99 98 100 94 99 99 100 99 100 100 98 100 100 97 81 100 97 91 100 46 4 8 14 16 12 13 16 28 36 35 34 49
62 70 90 100 94 98 99 99 100 97 99 99 99 99 99 99 100 100 98 78 95 96 93 100 71 7 6 10 10 12 18 18 22 34 34 46 47 36
81 80 79 99 99 98 100 100 97 95 97 98 99 100 99 100 100 98 80 94 91 94 98 95 18 5 9 12 12 17 25 22 28 39 41 45 48 38
97 100 100 98 100 98 100 100 99 98 97 100 100 100 100 100 100 90 92 92 97 98 100 39 6 8 12 12 16 17 19 30 39 47 48 48 53 53
100 100 100 100 100 96 99 100 99 96 99 100 100 100 100 99 97 91 95 99 97 100 65 9 8 11 11 13 14 18 38 40 40 47 72 92 88 82
100 100 100 100 100 100 100 100 99 99 98 99 100 100 100 90 94 96 100 98 100 91 14 7 10 12 11 13 19 33 36 42 54 70 99 94 66 74
100 100 100 100 100 100 100 100 100 100 100 100 100 100 91 98 98 100 99 100 98 25 6 10 12 10 11 18 30 34 49 74 82 99 95 98 92 83

GFSNE_500_rhum_006.txt.gz
RH
46 53 64 80 100 99 100 100 99 69 67 73 62 95 99 91 97 98 90 87 84 86 92 95 97 86 97 93 91 94 98 89 78 77 86 77 77 76
53 57 62 72 79 82 94 99 100 98 85 90 92 80 96 100 98 98 91 92 93 99 97 100 92 88 100 96 96 100 96 81 79 87 84 78 77 71
65 65 72 78 86 94 100 100 100 100 97 68 70 99 81 98 100 99 98 99 99 98 98 99 93 95 99 93 99 96 84 78 86 90 84 81 83 42
48 47 70 96 87 89 96 100 100 100 99 77 75 90 92 98 97 99 99 99 99 96 99 99 99 98 98 100 100 88 83 88 87 88 82 86 63 10
42 44 45 54 59 68 72 90 93 95 83 98 74 87 95 99 98 97 100 99 99 99 97 98 100 99 100 100 99 91 86 83 86 87 83 79 22 4
50 57 60 61 66 70 72 59 66 82 82 85 83 63 85 98 99 99 99 98 99 99 99 98 99 92 100 100 100 90 84 89 90 85 88 47 4 4
45 43 44 43 47 49 50 39 61 69 86 94 92 72 69 92 99 99 99 98 99 100 100 98 98 99 100 100 97 85 84 84 87 87 68 10 4 5
36 33 31 30 33 35 52 77 75 60 64 89 97 76 68 82 99 99 99 98 96 100 99 100 98 99 100 100 88 85 82 91 89 83 24 4 5 8
37 33 29 28 30 33 44 54 82 47 50 71 96 89 77 85 99 98 99 98 98 99 100 100 98 100 100 92 85 81 92 91 90 47 4 5 7 11
32 28 25 22 24 31 32 29 34 38 89 81 83 79 79 97 98 99 99 97 96 98 100 100 99 100 98 92 88 96 97 94 63 6 5 7 11 13
14 12 12 14 18 20 22 24 44 68 84 92 85 85 99 96 100 99 98 99 99 100 100 98 100 98 92 92 97 100 94 85 13 4 7 11 13 19
11 10 11 14 16 20 18 22 70 90 89 90 98 96 99 99 99 100 99 98 99 100 100 99 100 90 89 100 99 97 93 24 5 7 11 13 14 11
8 8 8 9 18 20 26 56 100 100 73 81 99 100 100 99 98 99 99 99 99 100 100 97 100 100 98 100 98 93 35 6 7 10 12 9 8 14
13 14 15 23 39 40 59 68 100 100 94 96 98 100 99 98 100 99 99 100 100 99 100 100 100 100 100 100 96 65 8 6 10 11 11 10 16 22
30 59 50 61 57 53 59 70 100 100 97 100 100 99 100 99 99 99 100 99 100 99 97 100 97 100 100 100 78 20 6 9 10 12 15 12 25 24
33 72 83 76 60 57 60 60 98 100 100 100 99 99 97 99 100 100 98 98 100 100 92 99 100 100 100 93 32 6 9 10 12 12 16 19 29 35
27 77 94 84 65 58 65 83 100 100 100 100 99 99 96 100 100 100 100 99 99 99 100 100 100 100 94 64 7 9 11 9 10 13 17 29 27 38
36 82 92 76 75 72 82 95 100 100 100 99 100 97 100 100 100 100 100 100 100 100 100 100 96 92 70 14 8 10 8 10 14 21 31 43 45 41
48 89 82 73 92 97 86 80 95 100 97 100 100 100 98 100 100 100 100 94 98 100 100 96 95 72 7 8 8 6 10 21 34 39 41 45 47 51
54 83 77 96 100 100 71 80 100 100 100 100 98 97 99 100 100 100 100 100 100 100 98 94 74 9 7 9 7 9 20 32 37 43 55 63 68 66
57 80 74 100 100 100 98 100 100 100 100 100 100 99 100 100 100 100 100 100 100 98 96 69 12 7 8 8 16 25 26 27 38 65 93 100 99 91
58 77 78 100 100 100 100 100 100 100 100 100 100 99 100 100 100 100 100 100 98 95 69 8 6 7 12 17 26 41 76 99 98 92 89 97 100 100
58 74 80 100 100 100 100 100 100 100 100 100 100 100 100 100 100 100 100 97 95 52 6 6 9 16 17 24 56 68 60 68 58 26 51 99 100 97

GFSNE_500_rhum_009.txt.gz
RH
63 79 80 80 86 87 94 100 98 88 85 93 99 100 100 99 99 80 74 90 81 95 90 89 92 93 94 94 98 84 96 81 100 99 96 84 72 69
49 50 50 67 80 83 84 92 99 99 84 97 100 100 98 99 80 78 78 98 98 100 99 97 97 92 96 97 97 90 85 89 100 100 86 81 76 73
53 53 54 58 60 60 66 68 78 91 94 72 94 84 90 87 95 77 82 93 78 99 100 100 99 98 100 99 100 91 83 97 100 94 87 83 81 76
62 61 62 64 63 64 63 59 60 78 88 79 70 83 81 90 95 78 75 77 83 95 98 99 98 99 98 95 98 86 88 100 99 91 88 90 79 82
70 70 70 70 66 62 58 50 45 41 46 59 62 77 79 74 73 69 87 88 93 95 98 97 99 99 99 98 98 91 94 99 92 90 93 84 88 90
82 84 80 74 67 59 51 45 41 37 34 36 48 54 68 66 60 76 93 96 100 87 92 99 97 98 100 99 99 99 99 100 92 96 89 87 98 95
76 81 80 80 72 62 53 49 42 36 31 30 32 44 46 96 52 97 96 98 86 86 98 97 100 99 99 98 100 100 100 98 95 97 90 98 100 94
77 85 88 80 67 59 49 40 33 30 28 27 29 28 23 35 99 99 91 96 99 100 100 99 100 100 99 100 100 100 99 86 100 98 98 97 100 80
86 81 76 62 46 38 32 26 22 18 13 15 18 19 19 30 70 100 99 92 82 95 99 100 100 99 100 95 100 100 97 100 98 99 100 100 88 38
71 60 51 46 37 30 27 26 21 18 14 13 16 16 19 32 44 99 78 96 99 90 97 100 100 99 99 100 100 100 99 97 98 100 100 94 58 7
60 58 52 47 39 27 20 19 14 10 9 10 11 15 37 56 84 91 96 100 98 99 98 100 99 100 100 100 100 100 94 98 100 100 100 72 12 7
31 27 21 16 13 10 9 8 7 7 7 8 9 18 54 96 97 96 99 100 100 100 100 100 99 100 100 100 100 100 100 100 100 100 81 18 8 11
10 10 11 10 9 10 10 8 8 7 7 7 12 69 100 91 96 100 100 100 100 98 98 100 100 100 100 100 100 95 100 99 100 89 25 8 9 9
7 8 8 7 10 9 9 9 35 40 19 21 25 98 100 95 98 100 100 100 100 99 100 99 100 100 98 92 99 100 98 97 95 42 8 9 8 10
4 5 5 8 8 10 11 43 77 84 68 53 66 99 100 100 100 99 99 100 98 100 100 100 100 100 100 100 98 92 99 91 45 9 9 8 8 12
5 5 6 8 9 16 39 77 78 70 59 52 96 100 100 100 100 100 100 100 100 99 100 99 100 100 97 100 98 93 81 32 10 8 8 9 14 17
6 6 7 8 17 46 73 79 76 79 61 60 96 100 100 100 100 100 100 100 99 99 99 99 95 98 100 99 97 72 20 9 8 8 9 18 27 31
7 6 7 19 40 61 85 91 100 94 74 88 100 100 100 100 100 100 100 100 98 96 92 95 98 97 95 99 67 16 8 8 8 13 23 32 39 36
8 8 17 38 60 83 87 100 100 94 96 100 100 100 100 100 100 100 99 96 92 93 94 100 100 100 98 56 9 7 8 15 24 27 30 32 36 36
8 12 30 48 77 87 100 100 100 99 100 100 100 100 100 100 100 100 98 100 97 100 100 98 99 82 23 6 7 10 17 43 78 95 89 90 97 96
9 20 39 76 82 100 100 100 100 88 100 100 100 100 100 100 100 99 100 93 100 99 96 92 52 8 6 10 15 27 32 50 73 87 54 26 98 100
10 28 62 78 99 100 100 100 100 100 100 100 100 100 100 100 98 98 100 100 99 95 84 20 5 8 11 16 22 45 89 81 63 29 18 25 42 73
11 40 77 83 100 100 100 100 100 100 100 100 100 100 100 95 95 89 100 100 88 57 6 5 8 11 15 21 57 87 71 26 33 61 71 72 72 85

GFSNE_500_rhum_012.txt.gz
RH
25 41 47 56 73 76 80 83 87 79 73 82 90 100 99 98 97 97 97 97 98 95 83 86 83 82 90 92 92 86 84 77 80 97 99 87 83 77
31 36 51 66 74 79 80 81 82 84 70 67 66 71 80 86 95 97 97 96 95 96 94 91 92 78 80 100 98 95 100 92 85 94 89 95 83 75
47 60 68 82 82 84 84 85 82 83 79 60 63 60 60 65 68 71 82 96 95 95 96 99 88 81 82 99 98 97 93 99 95 100 92 95 81 75
66 71 75 82 80 81 77 75 77 83 86 73 66 66 62 58 56 52 59 82 89 70 99 98 98 90 83 98 99 99 92 100 100 100 99 100 91 79
89 81 74 71 68 69 71 78 83 82 87 86 75 68 60 53 47 46 45 62 61 82 94 100 99 95 94 88 99 99 100 99 97 99 100 100 90 82
66 61 71 73 68 76 92 95 98 95 85 81 73 71 58 48 41 38 34 34 49 99 99 94 100 98 96 100 98 99 96 100 99 100 100 97 82 93
99 100 100 100 100 100 100 98 97 89 82 71 58 48 50 34 30 24 25 28 29 94 98 100 99 100 92 100 99 99 99 100 100 98 100 97 100 100
88 95 100 100 99 98 98 96 94 86 71 49 42 36 31 27 22 18 16 22 21 40 100 95 99 99 98 100 100 99 100 100 99 100 100 100 99 96
55 54 55 59 61 64 70 70 67 62 55 54 51 46 38 26 17 12 13 14 44 35 61 98 100 100 100 98 98 100 99 100 100 100 100 99 95 100
16 15 16 19 20 22 30 39 43 40 31 27 26 27 21 17 14 12 9 11 19 64 77 96 100 99 99 100 98 99 99 100 100 100 100 100 100 100
13 11 10 10 9 10 11 12 14 17 16 16 13 12 10 8 8 9 9 12 15 42 72 98 99 99 99 100 98 100 99 100 100 100 93 99 100 100
10 9 9 8 8 9 8 9 9 10 11 11 9 9 8 7 9 9 11 13 56 77 97 100 100 100 98 99 100 98 100 100 100 100 100 100 100 100
6 5 5 5 5 5 5 6 7 8 9 8 9 8 10 12 13 15 21 74 99 96 100 100 100 100 99 99 100 100 100 100 97 96 100 100 100 100
6 5 5 5 5 5 5 6 6 7 9 9 15 27 27 24 20 40 99 100 100 100 100 100 100 100 100 100 100 100 100 100 100 100 100 99 98 60
9 8 6 5 5 6 7 7 9 10 11 71 76 73 53 41 73 100 100 100 100 98 100 100 100 98 98 98 100 100 100 100 100 98 95 90 49 11
9 10 7 6 6 8 9 10 16 23 83 88 69 62 66 100 100 100 100 100 100 99 100 98 99 98 97 100 100 100 100 100 94 89 73 23 10 8
10 9 6 7 8 9 14 21 38 89 93 73 61 80 100 100 100 100 100 100 100 100 100 99 100 100 100 100 100 100 94 84 80 46 11 8 9 17
11 8 6 9 9 15 27 40 90 94 94 82 100 100 100 100 100 100 100 100 100 100 100 100 100 100 100 100 97 89 81 58 18 8 9 19 28 37
9 7 6 10 16 32 45 96 100 100 100 100 100 97 100 100 100 100 100 100 100 100 100 100 100 100 99 93 82 56 15 8 13 20 35 52 83 86
8 6 8 15 38 47 98 100 100 100 100 100 100 100 100 100 100 100 100 100 100 99 100 99 94 89 86 43 12 9 14 23 41 62 71 80 85 87
8 5 12 34 43 90 100 100 100 100 100 100 100 100 100 99 100 100 100 100 100 100 100 98 84 27 7 8 12 13 22 50 64 52 33 22 26 26
6 6 18 44 85 100 100 100 100 100 100 100 99 100 100 100 100 100 100 100 100 99 91 25 8 9 12 13 18 35 46 51 33 10 29 64 68 62
5 8 29 61 100 100 100 100 100 100 100 100 100 100 100 100 100 100 100 100 89 23 7 9 12 14 17 33 43 47 26 15 18 73 76 82 81 76

GFSNE_500_rhum_015.txt.gz
RH
12 13 15 16 19 27 42 53 66 37 21 20 26 44 69 78 73 76 93 96 99 100 98 97 98 97 95 87 81 95 80 94 97 100 100 100 100 86
13 14 15 17 20 32 56 79 91 91 71 40 40 47 63 74 77 77 76 91 86 93 99 99 100 99 99 99 97 97 98 86 85 94 100 100 99 99
9 10 13 17 22 42 71 90 100 100 98 85 79 74 76 80 80 88 86 78 73 77 90 96 93 96 94 96 89 99 100 88 84 90 94 94 97 100
10 15 24 26 38 59 70 82 89 88 95 88 76 72 72 79 76 80 84 81 71 64 66 74 76 87 90 91 97 97 98 100 99 98 99 97 100 98
39 55 70 82 92 100 100 100 100 100 100 100 93 81 76 83 87 88 82 78 72 66 57 56 53 80 98 86 99 96 100 97 96 98 98 100 97 100
69 81 93 97 94 90 90 91 93 94 94 94 91 78 89 96 93 91 79 69 69 58 48 43 48 53 75 87 99 100 99 98 100 100 100 100 99 100
50 44 38 33 29 26 26 26 27 32 46 70 84 86 83 94 98 90 83 60 52 46 41 38 36 38 57 98 99 99 100 92 100 100 100 100 100 100
29 31 30 25 22 20 19 18 16 15 15 14 22 41 59 79 80 73 62 55 60 30 24 26 20 24 33 67 100 100 99 99 95 92 100 100 100 100
21 19 19 20 18 16 14 13 12 11 11 11 12 14 16 27 44 52 56 55 49 46 35 20 15 17 24 41 95 100 99 98 96 100 99 100 97 99
20 18 17 15 15 13 12 10 8 7 8 9 9 10 10 12 14 18 23 26 25 22 18 18 14 11 28 56 60 98 100 99 99 100 100 100 100 100
13 12 12 10 10 9 7 5 5 4 5 5 7 9 10 11 12 13 12 13 14 13 11 10 10 10 33 72 97 99 100 99 99 98 99 100 100 99
6 6 7 7 7 6 6 5 4 4 4 5 6 6 7 8 11 11 10 9 8 6 7 9 11 16 24 73 93 96 100 99 100 99 100 100 99 100
9 9 11 11 11 10 8 6 4 4 4 5 6 7 9 10 11 12 10 7 7 8 14 27 39 83 97 100 100 100 100 99 100 99 100 100 100 100
20 20 16 13 12 11 8 6 6 5 6 6 8 10 12 13 13 21 23 21 19 16 80 100 97 100 100 100 100 100 100 99 100 99 100 100 100 100
17 16 15 17 15 11 6 6 7 8 9 10 13 43 56 58 85 77 57 99 95 96 100 100 100 100 100 100 100 100 100 100 100 100 100 100 100 100
17 20 20 16 12 7 6 10 10 12 19 39 87 96 84 82 78 84 100 100 100 100 100 100 100 100 100 100 100 100 100 100 100 100 100 100 100 100
14 16 14 11 8 6 10 14 25 35 76 100 95 90 77 73 98 100 100 100 100 100 100 100 100 100 100 100 100 100 100 100 100 100 100 99 94 77
12 11 9 8 5 10 15 35 64 100 100 100 100 83 81 100 100 100 100 100 100 100 100 100 100 100 100 100 100 100 100 100 100 97 91 77 32 11
10 7 8 6 10 15 42 83 100 100 100 100 91 95 100 100 100 100 100 100 100 100 100 100 100 100 100 100 100 98 96 96 82 43 16 10 11 19
8 6 6 7 14 45 87 100 100 100 100 100 100 100 100 100 100 100 100 100 100 100 100 100 100 100 100 99 95 80 46 23 11 10 16 32 42 43
7 7 5 11 38 83 100 100 100 100 100 100 100 100 100 100 100 100 100 100 100 100 100 100 100 100 94 62 22 9 11 14 19 31 39 42 41 30
6 6 7 20 65 99 100 100 100 100 100 100 100 100 100 100 100 100 100 100 100 100 100 100 85 43 15 13 16 26 40 44 38 30 22 14 16 34
6 5 10 46 96 100 100 100 100 100 100 100 100 100 100 100 100 100 100 100 99 60 12 16 28 28 39 48 51 46 43 28 18 17 24 46 62 71

GFSNE_500_rhum_018.txt.gz
RH
10 10 8 7 6 7 8 13 17 10 7 6 11 13 22 40 72 89 84 86 93 100 100 98 99 99 100 100 99 97 99 98 94 89 91 81 89 100
8 6 6 7 7 10 16 27 41 46 34 21 26 31 62 88 100 100 98 94 82 84 98 100 99 98 97 97 99 100 99 98 98 96 92 99 86 96
8 7 8 10 18 32 47 60 71 86 86 65 76 74 86 95 100 100 100 100 100 88 95 100 100 100 96 99 99 95 98 99 99 100 97 94 96 87
8 14 26 40 47 50 53 54 58 62 68 56 51 60 70 78 88 99 100 100 100 100 100 100 100 100 100 98 100 100 99 98 100 96 100 98 94 87
35 59 62 60 56 51 48 44 37 33 33 31 26 23 22 25 44 66 82 96 100 100 100 100 100 100 100 93 88 89 87 97 98 90 98 99 92 95
69 78 74 68 58 48 42 40 39 37 37 37 28 21 20 19 18 19 31 67 86 95 98 100 100 89 74 88 78 71 70 87 91 100 100 98 96 93
62 57 49 42 38 34 29 26 24 22 21 20 18 18 17 15 14 14 16 17 52 78 94 98 100 97 98 57 52 60 53 67 98 99 100 100 98 92
27 27 27 26 26 24 21 18 18 16 14 13 11 10 10 10 10 10 11 13 15 45 76 90 92 95 80 78 77 51 37 38 43 60 92 99 100 99
11 9 7 6 6 6 6 6 7 7 7 6 5 5 6 6 6 6 8 8 11 15 40 75 80 67 60 51 26 25 23 21 30 31 88 98 100 100
6 8 8 7 7 7 7 6 6 7 9 7 5 4 5 5 4 4 6 8 9 12 17 32 53 64 65 56 45 29 18 16 18 27 90 100 100 100
11 8 9 10 14 17 16 16 14 14 13 11 8 5 5 5 4 5 6 8 10 11 13 13 21 30 36 32 35 35 18 13 18 35 99 100 100 100
7 8 10 11 13 17 18 16 14 12 11 10 7 6 6 6 6 6 6 7 9 10 12 13 14 14 16 16 15 13 14 13 19 45 98 100 100 99
7 9 11 11 11 11 13 15 14 12 9 6 7 8 9 9 12 9 8 9 9 10 10 10 10 10 10 9 9 10 11 17 81 100 85 99 99 100
10 12 13 12 12 14 15 13 11 7 7 10 12 17 16 18 16 14 12 12 9 15 48 22 16 17 16 15 14 15 23 70 93 100 98 99 99 98
12 22 16 12 13 13 11 10 6 10 12 23 45 39 35 40 66 60 33 44 70 100 100 74 91 100 100 97 99 96 77 100 100 100 99 99 100 100
14 32 22 11 9 8 8 6 11 15 57 75 79 99 100 100 76 64 78 94 100 100 100 100 100 100 100 100 100 99 100 100 100 100 100 100 100 100
12 31 26 9 7 9 6 11 22 78 100 100 100 100 95 75 71 85 100 100 100 100 100 100 100 99 100 100 100 100 100 100 100 100 100 100 100 100
13 30 18 6 7 6 12 37 98 100 100 100 100 95 79 71 96 100 100 100 100 100 100 100 100 100 100 100 100 100 100 100 100 100 100 100 100 100
17 32 9 6 6 13 61 100 100 100 100 100 100 77 87 100 100 100 100 98 100 100 100 100 100 100 100 100 100 100 100 100 100 100 100 100 100 100
31 25 6 6 12 64 100 100 100 100 99 98 99 100 100 100 100 100 100 98 100 100 100 100 100 100 100 100 100 100 100 100 100 99 89 54 24 15
32 16 6 9 54 99 100 100 100 100 100 100 100 100 100 100 100 100 100 100 100 100 100 100 100 100 100 100 100 98 85 52 26 16 15 18 28 36
25 7 6 31 90 100 100 100 100 100 100 100 100 100 100 100 100 100 100 100 100 100 100 100 100 100 99 81 59 40 27 34 38 40 40 40 38 36
15 5 16 79 100 100 100 100 100 100 100 100 100 100 100 100 100 100 100 100 100 99 96 86 49 29 34 51 67 62 55 50 44 32 24 22 20 19

GFSNE_500_rhum_021.txt.gz
RH
18 15 14 12 10 8 7 8 12 9 5 5 11 24 33 39 46 50 50 64 100 100 100 100 100 100 93 99 92 99 97 99 93 98 100 99 97 95
15 12 10 8 7 6 7 17 42 69 60 42 44 44 42 43 46 53 63 73 83 100 100 100 100 100 97 100 94 100 87 99 99 96 98 99 100 100
12 9 7 6 6 10 19 36 54 74 82 66 66 54 40 34 32 30 32 36 47 67 91 100 100 100 100 98 98 88 97 98 98 100 96 99 99 100
9 7 6 7 12 18 24 33 46 56 57 56 58 59 50 43 35 32 31 32 27 24 34 67 88 100 100 99 100 100 94 90 95 99 99 100 86 97
7 8 12 13 12 12 13 14 15 17 23 32 42 46 43 38 34 31 28 25 22 20 18 20 42 77 100 100 100 100 99 98 91 90 90 98 94 86
14 13 11 10 8 7 5 5 5 5 6 7 9 12 18 26 29 33 33 29 26 20 16 16 16 28 67 100 100 95 99 97 93 89 83 92 98 92
15 11 9 5 5 5 7 6 7 7 6 7 6 6 6 6 8 10 15 17 15 12 11 11 14 14 28 76 100 100 97 100 98 98 99 95 88 92
12 8 5 7 8 8 7 6 6 8 9 10 10 8 6 7 7 6 5 5 5 6 6 8 10 11 16 38 91 100 94 93 94 86 89 89 87 87
7 6 9 10 8 7 7 6 7 9 12 13 15 17 15 14 10 7 5 4 3 4 5 6 8 9 13 18 65 100 99 95 91 91 88 73 78 82
6 8 10 9 8 8 7 6 8 9 11 15 17 18 17 14 12 9 6 4 4 5 5 4 6 8 12 15 36 89 100 96 95 93 96 86 83 54
8 8 8 8 8 8 9 8 8 11 15 16 15 14 13 11 9 7 6 5 5 6 5 5 7 8 11 14 23 57 97 93 74 73 53 34 22 18
8 7 8 8 7 13 18 9 8 10 10 10 9 9 8 8 9 11 13 14 7 8 7 8 9 10 11 13 18 37 70 72 72 69 57 41 20 17
9 8 9 8 10 25 26 10 8 8 7 7 11 14 22 56 64 76 77 41 11 10 11 9 10 11 11 13 14 24 40 44 47 43 42 42 18 21
9 9 10 9 14 35 23 8 7 6 9 14 33 100 100 100 91 58 58 39 17 18 22 12 12 11 12 12 13 14 18 22 25 23 23 20 19 37
9 9 10 10 20 30 9 7 6 14 35 95 100 100 100 100 100 100 95 52 88 91 65 34 21 14 10 11 12 12 12 12 12 12 13 12 27 77
10 9 10 10 30 15 6 7 35 76 91 97 100 100 100 100 88 73 86 100 100 100 100 100 100 100 66 12 9 10 12 14 15 12 18 39 99 100
9 14 12 24 21 6 10 53 93 96 97 95 99 100 100 89 72 94 100 100 100 100 100 99 98 96 100 100 81 75 88 99 61 62 100 100 100 100
18 14 21 22 6 12 60 100 96 99 100 100 100 96 90 89 99 100 100 100 100 100 100 100 100 100 100 100 100 100 100 100 100 100 100 100 100 100
26 18 26 6 10 61 98 95 100 100 100 100 100 100 100 100 100 100 100 100 100 100 100 100 100 100 100 100 100 100 100 100 100 100 100 100 100 100
22 27 13 7 41 97 98 100 100 100 100 100 100 100 100 100 100 100 100 100 100 100 100 100 100 100 100 100 100 100 100 100 100 100 100 100 100 100
28 19 6 26 94 98 99 100 100 100 100 100 100 100 100 100 100 100 100 100 100 100 100 100 100 100 100 100 100 100 100 100 100 100 100 100 100 100
23 6 19 88 100 100 100 100 100 100 100 100 100 100 100 100 100 100 100 100 100 100 100 100 100 100 100 100 100 100 100 100 100 96 76 62 50 33
9 10 81 98 100 100 100 100 100 100 100 100 100 100 100 100 100 100 100 100 100 100 100 98 96 91 84 73 62 54 47 46 51 54 56 55 50 48

GFSNE_500_rhum_024.txt.gz
RH
22 21 19 18 15 12 11 10 10 8 6 6 6 6 7 8 12 20 36 59 58 65 63 55 52 56 60 84 100 97 96 99 97 98 98 97 96 96
21 19 15 13 11 10 9 10 12 13 10 6 5 6 8 10 11 14 20 41 68 62 76 82 76 80 90 80 90 100 98 89 99 99 99 98 100 79
17 13 11 9 9 8 10 11 9 10 9 7 7 5 5 6 8 12 15 21 38 65 56 57 60 68 83 89 82 89 98 95 81 97 96 98 98 98
11 10 9 8 8 7 8 10 10 8 5 4 3 4 5 6 5 5 6 13 21 44 58 48 36 30 29 35 57 82 78 91 92 100 100 97 100 100
9 9 8 5 6 13 12 9 6 4 6 7 6 7 7 6 5 6 6 6 6 14 35 48 45 33 26 22 21 23 53 70 78 87 88 86 91 95
9 7 7 14 16 12 8 5 5 7 8 8 8 7 6 6 7 7 6 7 6 6 9 22 37 38 31 27 27 25 19 25 68 72 86 81 82 96
7 8 19 19 13 6 4 7 8 8 8 7 6 7 7 8 9 10 12 14 11 8 7 7 14 27 36 36 35 34 27 17 22 73 82 85 92 85
10 20 20 14 6 5 8 8 7 8 7 9 11 8 9 13 13 13 14 15 13 19 11 7 7 8 13 19 23 23 20 16 17 24 84 87 84 78
24 21 16 8 6 8 9 8 7 8 14 24 11 9 9 10 10 10 12 13 13 14 14 7 9 6 6 6 7 7 8 11 15 17 77 90 80 93
23 18 11 7 11 10 8 8 8 8 20 22 10 9 9 8 7 7 8 8 9 9 9 8 8 6 5 4 4 5 7 9 14 15 67 98 87 87
21 14 8 12 11 9 8 8 8 10 25 12 9 8 7 8 11 12 23 21 39 68 90 58 9 5 5 5 5 6 9 9 12 16 75 100 92 88
19 7 10 9 12 11 8 9 8 17 9 7 8 9 15 26 62 98 78 53 72 98 100 99 18 7 6 6 6 6 8 10 13 16 77 98 95 90
10 7 10 18 16 10 10 9 15 8 9 17 32 52 82 100 100 100 100 92 94 90 87 32 18 11 10 9 9 8 9 12 14 24 74 100 84 91
6 11 18 20 13 13 12 18 8 17 54 96 100 100 100 100 93 100 98 100 83 96 94 60 36 16 13 13 13 12 11 13 15 24 90 94 64 84
11 22 20 17 17 16 23 7 25 74 90 98 100 100 100 95 100 89 80 95 100 100 100 100 95 34 18 18 14 13 13 13 16 25 51 48 56 55
19 22 26 22 21 22 7 25 76 84 90 94 94 86 78 81 87 100 100 100 100 100 100 100 100 66 96 28 13 13 12 13 15 17 21 25 27 20
22 26 27 24 24 8 21 74 91 96 98 100 98 98 100 100 100 100 100 100 100 100 100 97 100 100 97 42 16 12 12 12 13 14 14 13 14 15
24 26 25 24 7 20 80 100 100 100 100 100 100 100 100 100 100 100 100 100 100 100 100 100 100 90 82 100 100 25 10 10 17 58 59 17 15 20
26 26 25 7 16 86 100 100 100 100 100 100 100 100 100 100 100 100 100 100 100 100 100 100 100 100 100 100 82 90 99 100 100 76 51 32 30 69
26 24 8 12 84 100 100 100 100 100 100 100 100 100 100 100 100 100 100 100 100 100 100 100 100 100 100 100 100 100 100 100 100 100 98 54 98 100
25 11 10 81 100 100 100 100 100 100 100 100 100 100 100 100 100 100 100 100 100 100 100 100 100 100 100 100 100 100 100 100 100 100 100 100 100 100
14 8 86 100 100 100 100 100 100 100 100 100 100 100 100 100 100 100 100 100 100 100 100 100 100 100 100 100 100 100 100 100 100 100 100 100 100 100
7 83 100 100 100 100 100 100 100 100 100 100 100 100 99 98 97 99 98 97 98 98 100 100 100 100 99 98 98 98 100 100 100 100 100 100 100 100

GFSNE_500_rhum_027.txt.gz
RH
31 28 24 20 17 13 11 9 8 8 7 4 4 4 4 4 4 7 7 6 6 6 7 8 11 20 40 47 57 56 40 32 37 64 98 85 99 100
28 23 19 15 13 11 10 8 7 7 5 4 4 4 3 5 6 5 4 4 4 4 4 4 5 11 35 73 71 79 77 54 38 60 66 93 99 100
23 17 15 14 11 9 8 7 7 7 8 5 5 6 6 4 4 5 6 7 7 7 7 6 4 4 11 45 82 81 95 90 73 50 57 92 99 98
17 15 11 9 8 8 9 8 7 9 13 11 8 4 4 6 6 7 8 8 7 7 7 6 5 5 5 12 58 82 83 99 95 81 65 66 96 92
10 9 9 9 10 11 9 9 15 14 12 6 4 7 8 7 7 6 6 6 6 6 6 7 7 6 5 6 19 69 75 80 83 91 92 81 57 76
9 10 11 13 12 10 16 18 14 12 6 7 10 8 8 7 7 10 8 8 7 8 9 11 11 9 7 6 7 35 69 64 62 55 65 79 78 57
11 13 13 12 13 25 19 16 13 5 7 10 8 8 9 7 15 14 8 7 7 9 9 10 13 14 12 8 6 13 51 58 40 31 29 28 37 61
14 14 13 26 27 20 18 13 5 8 9 10 8 8 8 18 15 6 6 6 6 13 9 9 13 14 15 11 7 6 22 54 42 30 24 22 20 20
15 16 31 29 22 20 14 5 8 12 16 11 9 9 14 12 6 6 8 11 15 21 11 11 18 13 14 14 8 6 7 32 49 36 26 26 30 25
27 39 31 24 23 14 5 8 11 15 10 10 11 15 8 7 11 15 39 59 82 99 77 68 100 100 66 11 10 6 6 8 25 44 39 33 36 34
41 34 27 26 15 6 12 14 14 12 11 17 14 8 20 46 61 58 89 72 100 100 100 99 100 100 87 17 7 6 5 5 5 10 19 29 30 27
34 29 29 15 6 19 20 15 12 12 15 10 22 71 97 98 100 100 93 50 83 98 100 82 67 63 81 14 7 5 4 4 4 4 5 7 9 12
29 27 16 6 18 23 25 20 15 13 12 52 96 100 100 100 100 99 94 85 79 91 100 78 62 43 20 14 8 6 5 5 5 5 6 7 10 14
29 15 5 16 23 25 22 20 13 17 66 92 100 100 100 88 82 83 98 99 100 87 96 81 71 40 23 14 11 8 7 7 7 10 10 11 14 33
12 5 16 24 24 24 24 9 21 72 92 98 100 91 89 99 97 100 94 97 100 100 100 100 100 89 26 15 13 12 10 10 12 13 14 16 35 83
5 16 23 25 25 20 8 26 83 95 94 90 100 100 100 100 98 100 100 100 100 100 100 100 100 100 67 49 14 14 14 15 15 15 17 37 99 96
16 20 25 26 21 8 42 95 96 98 100 100 100 100 100 100 100 100 100 100 100 100 100 100 100 96 97 99 18 16 16 16 16 17 41 100 100 97
18 22 26 20 8 58 100 100 100 100 100 100 100 100 100 100 100 100 100 100 100 100 100 100 100 100 100 39 20 17 18 17 15 16 19 29 51 66
19 23 24 10 73 100 100 100 100 100 100 100 100 100 100 100 100 100 100 100 100 100 100 100 100 100 100 100 96 36 22 22 16 15 17 16 15 17
19 24 11 85 100 100 100 100 100 100 100 100 100 100 100 100 100 100 100 100 100 100 100 100 100 100 100 100 100 68 32 90 62 86 100 99 37 18
24 12 83 100 100 100 100 100 100 100 100 100 100 100 100 100 100 100 100 100 100 100 100 100 100 100 100 100 100 100 98 100 100 100 100 100 100 45
11 79 100 100 100 100 100 100 100 100 100 100 96 80 73 81 95 100 100 100 100 100 100 100 100 100 100 100 100 100 100 100 100 100 100 100 100 96
78 100 100 100 100 100 100 100 89 70 43 25 22 20 19 18 17 16 17 22 60 96 100 100 100 100 100 100 100 100 100 100 100 100 100 100 100 96

GFSNE_500_rhum_030.txt.gz
RH
33 32 32 30 27 23 19 15 14 14 11 7 6 6 6 6 6 6 4 4 6 7 6 5 4 4 4 4 4 5 6 8 9 8 8 15 16 76
34 32 27 22 18 14 11 8 7 7 5 5 5 6 6 6 5 7 9 8 5 4 5 5 5 5 5 5 6 5 4 5 8 10 9 13 24 24
24 20 15 12 8 6 6 7 8 11 11 7 7 7 5 5 8 9 6 5 6 8 8 7 7 7 7 8 8 8 7 6 6 11 12 11 24 35
13 10 7 7 7 7 8 9 11 12 11 10 6 6 10 12 7 4 6 8 8 8 7 6 8 8 8 6 6 6 7 7 6 9 16 16 52 62
8 8 8 7 7 8 10 10 10 10 16 16 11 13 10 4 5 8 8 8 8 8 8 11 10 8 8 7 7 6 6 6 5 6 18 32 77 94
8 9 8 8 9 10 10 10 12 15 17 16 14 6 5 9 10 8 7 8 9 11 10 7 7 7 7 7 7 7 7 7 6 5 12 41 79 100
8 9 8 9 10 12 17 20 23 21 19 11 4 8 12 9 7 7 7 7 7 8 7 7 7 7 8 8 7 8 10 11 8 6 6 41 76 100
8 7 7 9 20 26 25 24 24 19 7 7 13 13 10 10 10 8 15 15 13 39 25 38 23 18 11 11 11 12 14 15 14 7 6 29 70 98
6 7 13 27 28 25 24 22 17 6 16 19 18 17 14 11 14 39 82 79 83 100 99 64 56 66 94 94 95 94 47 16 14 9 6 25 72 87
12 24 29 26 26 25 20 11 5 15 23 26 20 17 10 43 72 71 76 74 88 91 95 100 100 65 94 100 100 100 100 23 14 9 6 22 68 74
24 29 28 26 23 16 6 4 15 23 23 22 16 14 58 85 87 82 83 76 78 90 96 86 95 99 98 90 100 98 34 11 10 7 6 19 64 66
27 27 27 22 10 5 9 20 22 21 16 14 36 79 96 98 100 100 93 90 97 100 100 92 100 91 74 81 62 29 12 8 8 6 6 13 55 51
25 24 17 6 7 17 23 24 22 12 32 78 96 98 98 97 99 100 83 83 83 94 85 75 92 95 48 41 16 11 9 7 7 6 6 8 38 49
23 12 6 14 18 24 25 21 12 67 94 100 100 100 100 100 100 100 100 100 100 100 100 97 100 98 70 21 16 11 9 7 6 5 5 5 11 41
7 8 17 18 22 26 21 16 87 96 100 100 100 100 100 100 100 100 100 100 97 100 100 100 100 100 89 20 17 12 10 8 7 5 4 4 5 7
9 17 17 20 25 16 27 94 99 100 100 100 100 100 100 100 100 100 100 100 100 100 100 100 94 100 80 23 16 14 10 10 11 11 9 7 7 7
17 17 18 22 18 41 100 98 100 100 100 100 100 100 100 100 100 100 100 100 100 100 100 100 92 94 67 25 17 16 14 15 15 15 15 15 14 17
19 16 21 16 61 100 100 100 100 100 100 100 100 100 100 100 100 100 100 100 100 100 100 100 90 49 17 17 17 17 18 18 23 70 43 53 29 61
20 24 18 76 100 100 100 100 100 100 100 99 99 100 99 98 100 100 98 98 100 100 100 100 99 82 24 18 16 17 19 19 21 39 81 100 92 93
28 20 84 97 100 100 100 100 98 98 98 100 100 99 99 97 100 99 99 99 96 99 98 100 100 99 80 38 18 17 16 19 28 77 96 100 96 91
22 95 100 100 100 100 99 100 99 86 63 42 27 21 20 20 26 56 93 100 100 100 100 100 100 100 100 77 31 22 19 17 20 26 27 34 48 63
97 100 100 99 98 98 100 84 46 28 26 25 23 22 21 19 17 17 18 25 82 100 100 100 100 99 100 100 96 82 59 53 68 91 95 86 63 45
100 100 100 98 97 89 40 28 25 30 33 36 41 37 29 25 24 22 20 20 21 31 91 100 100 100 100 100 100 94 97 100 100 99 100 100 100 100

GFSNE_500_rhum_033.txt.gz
RH
43 35 23 18 15 9 6 6 5 5 5 4 4 4 4 4 4 4 4 4 4 5 5 6 7 8 7 7 6 6 5 5 5 5 5 4 5 6
19 15 11 7 6 6 6 6 5 4 3 3 3 3 3 3 4 6 6 7 9 10 10 8 7 6 5 4 4 5 5 5 5 4 4 4 5 5
9 7 6 6 6 6 6 6 5 4 3 2 2 2 2 3 6 10 13 13 10 7 5 5 6 8 6 7 7 7 7 7 7 6 6 5 4 4
10 8 7 7 7 6 6 5 4 4 4 4 2 3 6 10 13 14 9 5 6 8 9 9 8 8 8 8 8 8 7 7 6 6 7 7 6 5
8 8 7 7 6 5 4 4 3 4 8 11 8 11 12 14 9 4 6 10 11 10 8 9 9 9 9 9 9 8 8 7 7 7 7 6 8 8
8 8 7 6 5 4 4 4 7 11 14 17 18 15 11 4 7 10 8 10 9 10 11 14 11 10 10 8 7 7 6 6 6 7 7 6 6 6
10 8 6 5 4 4 8 11 16 19 19 19 13 5 6 15 15 11 8 8 30 68 72 73 66 58 48 32 19 13 10 8 7 7 6 7 7 6
11 7 5 5 7 12 17 20 24 22 11 4 4 16 19 15 10 12 44 66 70 90 99 100 100 100 91 92 53 22 29 38 31 13 9 7 7 7
10 5 6 9 13 17 20 20 14 5 8 16 23 21 12 14 53 67 69 78 98 100 97 97 98 72 70 88 81 53 50 68 77 86 90 19 10 7
5 7 11 14 18 19 15 6 6 16 23 26 20 15 45 76 76 74 85 82 83 81 36 42 93 77 78 78 86 96 100 96 96 100 100 66 16 10
7 14 18 16 11 7 6 8 17 24 25 18 33 86 94 91 93 79 73 75 87 100 71 81 97 85 86 99 100 68 89 100 100 89 58 18 13 9
16 16 9 6 7 8 14 16 21 17 33 97 100 100 98 99 94 87 86 94 99 100 98 100 100 84 100 98 70 57 72 56 28 13 13 13 10 7
12 8 9 8 14 16 17 20 17 75 100 99 100 98 98 100 100 100 100 99 100 100 100 100 100 100 100 100 48 38 26 17 10 9 10 8 7 6
11 14 15 16 16 17 20 20 91 100 100 94 98 100 100 100 100 100 100 100 97 99 100 100 100 100 100 74 29 17 13 10 8 8 7 6 5 6
16 18 16 15 16 20 26 94 98 96 97 100 100 100 100 100 100 100 100 100 96 100 100 100 100 98 80 30 17 14 25 66 26 8 7 6 6 14
18 19 16 17 19 44 94 97 96 98 99 100 100 100 100 100 100 100 100 100 100 100 100 100 99 81 68 19 15 12 12 43 96 10 7 6 8 33
20 28 25 23 74 100 99 99 100 100 100 100 100 100 100 100 100 100 100 100 100 100 100 90 64 27 21 19 17 18 58 51 70 87 9 6 8 34
23 21 31 94 98 100 100 100 100 100 100 100 98 95 96 100 100 96 94 99 99 100 100 100 33 19 19 21 19 70 100 52 56 20 21 9 6 14
20 46 97 100 99 100 100 100 100 100 97 71 44 31 23 21 36 91 98 93 92 100 100 100 96 25 18 19 20 53 100 100 100 24 31 29 27 14
35 99 100 100 100 100 100 99 82 47 28 25 24 22 21 19 18 17 22 95 96 92 100 100 100 78 20 20 20 40 79 100 98 64 55 100 64 60
99 100 100 100 99 93 69 34 24 24 25 27 33 31 25 21 20 18 17 17 83 97 92 100 100 100 53 23 22 22 46 93 100 100 100 98 100 99
99 100 97 89 62 28 23 23 27 35 40 43 43 35 27 28 29 26 24 19 20 82 100 98 100 100 99 44 30 34 41 43 87 100 100 100 100 100
99 85 57 24 20 21 28 31 33 38 42 41 35 34 39 42 36 35 35 36 23 25 93 100 100 100 100 100 49 51 74 100 100 100 97 94 97 100

GFSNE_500_rhum_036.txt.gz
RH
43 28 18 12 10 8 9 9 7 5 5 4 4 4 4 3 3 3 3 2 2 2 2 2 2 3 3 3 3 3 3 3 3 3 3 3 4 5
19 14 13 11 11 10 9 7 6 6 5 4 4 3 3 2 2 3 3 4 5 7 7 8 7 8 8 8 7 6 7 6 6 6 7 6 6 5
15 12 12 11 9 7 7 7 7 6 6 4 3 2 2 2 3 5 7 11 12 14 13 10 8 6 5 4 4 4 4 4 4 4 4 4 4 5
13 12 9 8 7 7 8 7 7 6 3 2 2 3 5 8 9 11 13 12 9 6 4 10 12 10 8 7 7 6 6 6 7 7 7 7 7 6
10 8 8 8 8 8 9 7 4 3 5 6 6 10 11 12 9 5 4 4 7 13 15 12 10 9 9 12 11 9 8 7 7 7 8 8 8 8
8 9 9 11 10 10 7 3 3 6 11 14 15 12 8 4 5 8 11 15 12 13 14 15 21 45 65 61 52 44 27 20 12 8 8 7 7 7
10 12 13 12 12 5 4 7 12 12 9 8 6 5 8 17 16 12 23 42 56 75 74 80 81 86 94 81 53 42 44 47 53 14 10 9 7 6
13 15 14 13 4 4 10 10 7 6 7 6 10 18 15 14 32 69 70 87 97 100 54 87 73 74 78 69 65 62 55 53 47 48 37 16 9 8
15 15 13 4 6 9 7 7 7 10 16 18 19 16 41 78 81 91 100 95 99 89 58 78 81 68 71 78 87 81 64 68 92 100 100 87 79 71
17 11 5 8 9 7 8 10 15 17 22 21 29 78 86 89 82 84 83 93 100 97 78 90 93 98 94 97 74 82 97 100 100 99 82 100 100 100
10 5 10 7 7 10 12 13 16 21 24 68 92 96 97 96 90 84 87 96 100 100 93 95 98 93 100 100 86 95 100 60 37 38 57 90 100 100
6 10 7 8 13 14 13 13 18 44 97 100 100 100 100 95 93 97 94 96 100 100 99 100 100 95 100 97 100 95 67 20 16 17 22 26 22 34
9 7 8 15 17 15 14 19 72 94 98 100 100 100 100 100 100 100 100 94 94 100 90 90 93 96 98 90 67 28 15 17 14 10 10 12 13 15
7 8 14 20 19 18 30 87 97 99 100 99 98 100 100 100 100 100 100 100 90 94 99 100 100 94 43 19 16 19 86 92 43 11 10 10 14 14
8 13 17 19 20 60 91 97 97 97 95 99 100 100 97 98 100 100 100 100 98 99 100 84 86 66 20 16 18 99 100 72 53 18 8 7 9 9
11 14 18 23 79 90 89 92 90 93 97 99 99 97 97 96 95 99 100 100 100 100 100 51 26 26 27 74 54 55 100 99 32 10 7 6 6 6
12 18 26 84 92 92 90 91 95 96 97 92 72 50 33 24 22 42 82 100 99 100 100 90 28 25 71 100 100 100 57 34 10 8 7 6 9 35
15 24 81 88 88 93 95 97 92 81 54 33 27 25 22 21 19 18 17 48 100 100 100 100 36 25 75 95 100 97 43 20 9 8 9 18 51 72
20 78 89 90 91 91 92 84 56 28 26 30 32 33 29 22 20 17 17 16 53 100 100 100 92 28 41 100 100 82 93 99 100 61 11 28 64 84
56 95 92 91 83 61 31 23 25 29 38 41 43 36 31 24 25 24 21 18 18 87 100 100 100 58 28 91 100 100 94 100 98 49 16 22 47 67
95 91 72 42 23 20 22 25 30 35 39 41 33 30 31 33 31 28 31 22 19 44 100 100 100 100 43 32 94 100 100 79 100 100 100 43 18 45
83 39 22 22 24 25 28 32 35 42 46 36 32 32 37 46 52 47 43 43 25 25 96 100 100 100 100 34 44 77 100 99 89 87 100 100 81 43
26 34 40 38 36 36 35 36 44 55 54 45 37 35 41 51 60 66 70 56 43 28 45 100 100 100 100 79 89 71 99 100 100 100 80 100 100 100

GFSNE_500_rhum_039.txt.gz
RH
65 48 29 19 15 16 15 14 11 9 8 8 7 6 5 5 4 4 3 3 2 2 2 2 3 3 3 3 2 2 2 2 2 2 2 2 2 2
42 26 19 18 17 14 12 10 9 9 9 7 5 5 5 4 3 2 2 3 4 5 6 7 8 7 7 7 7 6 6 6 6 5 5 4 4 3
26 20 19 16 12 11 10 9 10 8 7 5 5 3 2 2 4 5 6 8 8 9 9 6 5 4 4 4 4 5 5 5 5 5 5 6 6 6
23 19 16 13 11 10 10 9 7 7 6 3 3 4 5 5 4 4 5 5 5 5 11 12 12 11 10 9 8 7 8 8 8 7 6 6 7 6
18 17 13 12 12 10 8 7 7 4 3 5 5 5 4 4 4 5 6 11 17 17 14 14 16 14 15 17 14 11 9 12 14 19 21 13 7 7
15 14 14 11 8 8 7 6 3 3 6 6 6 6 9 11 15 16 16 22 42 62 70 74 69 69 72 72 68 69 66 67 68 64 60 47 24 11
16 13 9 8 8 8 4 3 5 6 7 9 10 13 16 17 28 66 77 84 99 76 57 96 73 77 88 72 62 63 65 68 75 72 65 62 53 33
11 9 9 9 8 4 3 6 6 10 13 12 12 15 30 83 89 97 94 100 100 97 99 100 85 100 100 98 77 75 80 74 68 73 58 56 63 43
9 10 9 8 4 4 6 7 13 16 12 12 21 65 85 91 96 100 100 100 100 97 85 99 86 90 86 96 96 94 99 89 84 87 50 45 71 98
11 12 8 4 5 7 7 13 15 13 14 38 80 89 90 93 91 97 100 100 100 93 68 92 86 97 95 100 88 80 84 100 100 88 86 61 42 64
13 9 4 5 7 7 12 15 16 27 70 88 86 92 95 96 90 87 92 98 100 100 88 99 86 76 92 67 91 100 100 100 98 88 34 23 27 32
10 4 6 7 7 10 15 28 61 92 95 99 100 100 100 97 91 95 95 92 96 99 90 90 72 27 69 29 20 20 22 27 49 38 24 15 13 12
4 6 7 8 9 14 29 77 88 93 99 99 100 100 100 98 100 99 97 92 86 91 79 79 20 20 15 15 16 58 95 97 93 79 51 26 12 10
6 8 8 8 13 27 72 86 88 94 99 100 95 93 97 100 100 100 96 100 93 85 86 82 20 20 40 53 66 96 100 100 100 52 49 22 11 11
8 9 8 12 21 75 80 87 93 90 91 91 91 82 46 25 22 22 22 56 92 88 94 79 23 66 85 100 100 97 88 100 92 55 9 9 10 12
9 8 13 20 74 80 86 87 85 79 68 53 33 23 21 21 19 17 18 18 33 99 94 76 28 76 90 100 89 64 27 46 16 8 6 6 8 9
7 12 20 72 89 88 86 77 66 51 36 24 23 27 30 28 23 20 16 16 18 90 99 92 36 91 96 100 91 100 100 12 7 6 6 6 6 6
11 20 72 88 87 81 67 42 23 22 23 29 37 37 32 26 26 22 22 16 17 57 100 100 30 93 89 98 100 100 94 12 19 29 40 58 74 78
20 80 89 77 42 21 19 20 22 26 32 39 38 29 26 25 26 27 24 20 17 23 100 100 48 84 91 90 100 100 56 21 54 78 100 100 95 81
78 87 44 27 31 29 27 26 28 32 37 43 38 29 30 36 44 45 38 32 24 23 89 100 85 52 93 98 100 100 78 21 49 80 100 100 94 91
81 34 39 37 33 30 30 33 35 38 46 52 41 33 37 46 53 57 53 44 41 29 62 100 100 67 73 97 100 100 100 99 36 57 79 93 99 85
35 40 25 21 22 26 27 28 36 50 70 74 73 59 52 55 56 65 67 48 48 38 33 100 100 98 62 70 98 100 100 100 99 33 45 62 61 47
29 20 24 28 31 29 30 33 37 39 56 88 92 88 56 55 55 66 64 44 36 46 33 87 100 100 87 59 97 93 100 100 100 100 57 26 50 48

GFSNE_500_rhum_042.txt.gz
RH
66 74 74 61 40 31 26 22 21 19 18 16 15 13 11 10 10 8 5 3 2 2 2 3 4 4 4 5 5 5 4 4 3 2 2 2 2 2
76 75 55 37 32 26 22 19 15 15 16 14 13 11 9 6 4 2 2 3 4 4 4 3 3 4 4 4 5 6 6 6 7 6 6 5 3 3
78 52 37 33 25 21 17 15 13 10 9 11 8 5 3 2 3 4 4 5 7 10 8 7 8 6 5 6 7 7 8 6 5 4 4 6 8 8
50 38 32 23 19 17 14 11 9 7 6 5 4 2 3 5 5 6 10 14 16 17 20 23 29 38 48 48 45 43 32 19 12 10 10 7 4 4
42 31 22 19 17 12 9 8 6 6 4 3 2 4 5 6 8 12 22 47 69 66 65 60 68 71 71 65 58 54 54 52 55 61 47 17 8 8
30 23 21 16 11 8 6 6 5 4 3 4 5 6 7 10 29 56 71 88 83 84 83 80 79 77 73 67 68 70 69 63 52 49 62 75 76 66
25 21 11 8 7 6 6 4 3 4 5 5 8 9 26 57 72 83 86 87 91 86 91 95 97 85 84 84 86 87 83 82 78 66 66 62 58 84
14 7 7 7 7 6 4 3 6 7 7 10 23 56 75 72 82 87 82 97 100 94 89 100 82 91 90 91 70 75 93 100 100 100 100 82 66 66
8 8 8 8 6 4 3 6 7 9 16 37 59 69 75 75 82 95 96 99 100 95 71 100 88 98 67 32 33 46 62 84 94 92 83 94 80 69
9 9 8 6 4 3 5 6 8 17 55 70 73 75 76 76 76 76 80 97 100 92 66 90 85 61 30 21 27 16 15 23 78 100 100 100 100 99
10 7 6 4 3 5 6 7 15 49 73 74 70 74 80 80 78 80 77 79 94 100 88 84 76 21 22 18 21 24 25 50 62 57 36 47 50 47
8 7 5 4 6 7 7 13 46 74 76 84 88 90 88 87 82 68 54 43 50 80 90 88 40 17 71 83 77 96 99 85 90 94 90 81 57 45
7 5 4 7 8 7 12 49 70 74 81 84 90 90 88 72 48 23 21 21 20 20 63 82 29 38 58 54 81 73 79 93 92 88 100 90 64 38
4 5 7 8 7 12 45 76 76 79 83 86 87 66 43 26 23 20 18 16 13 16 44 87 29 43 50 63 83 99 100 57 47 66 17 9 9 9
5 7 9 8 14 50 76 80 85 83 62 36 23 20 20 22 25 26 24 19 14 13 32 90 35 62 62 72 90 100 77 46 11 10 8 7 8 11
6 8 9 18 61 77 79 55 27 18 18 18 20 26 33 33 27 22 22 21 21 19 22 98 38 62 94 88 95 96 17 18 15 10 8 7 9 10
8 9 24 76 87 54 29 27 27 26 24 24 28 36 35 29 26 26 30 25 19 20 57 100 49 74 77 80 100 56 40 60 61 46 32 10 7 8
8 30 82 59 34 35 34 31 27 30 29 31 37 41 33 27 36 43 43 34 28 26 40 100 87 78 97 98 95 29 69 89 76 82 91 90 62 16
26 77 39 36 27 20 23 24 26 30 34 42 46 52 43 32 35 50 56 49 40 34 33 100 97 85 100 89 95 43 70 97 82 78 69 77 89 97
66 36 32 20 23 26 26 26 25 28 35 44 74 77 65 40 43 51 50 55 43 40 31 100 100 64 100 99 64 90 36 86 100 86 81 96 98 100
36 25 23 25 28 31 30 26 24 25 27 33 44 80 82 65 54 54 48 49 39 37 33 100 100 63 99 95 96 88 88 38 97 100 90 98 93 80
23 26 28 31 35 34 30 30 35 37 40 48 61 83 86 71 50 48 48 57 47 40 36 96 100 98 98 100 99 88 91 38 61 87 86 74 61 55
29 34 36 34 34 37 37 39 49 58 62 66 76 80 77 73 66 62 61 58 60 55 39 72 100 100 74 100 100 100 89 94 59 59 62 46 46 50

GFSNE_500_rhum_045.txt.gz
RH
81 78 70 69 67 67 61 49 41 36 31 24 21 21 21 17 15 13 9 6 4 2 2 2 3 3 3 3 4 4 3 3 3 3 3 4 3 3
72 71 70 68 69 55 44 33 24 21 24 22 23 18 16 11 8 5 3 2 3 4 4 4 4 7 14 20 21 18 11 7 5 4 4 4 5 6
73 70 73 69 52 39 27 20 14 14 22 22 16 12 7 4 3 2 3 4 5 6 13 23 39 44 54 51 53 56 55 52 37 20 10 6 6 6
76 79 68 50 35 27 16 13 16 16 13 11 9 6 3 2 4 4 7 14 34 51 49 54 59 63 64 62 63 66 66 61 57 58 60 48 27 12
80 68 50 33 30 20 16 16 14 9 8 7 5 3 4 4 10 32 56 59 69 70 71 72 72 73 62 60 66 73 81 84 84 85 76 58 62 69
65 51 34 29 20 15 12 8 7 7 5 3 3 4 6 25 51 50 70 72 82 76 77 78 82 72 68 65 61 53 54 56 69 94 87 88 85 61
46 36 28 18 16 12 7 6 6 4 3 4 5 6 40 62 63 69 70 85 91 84 80 92 81 72 76 74 41 23 20 20 26 42 72 89 85 71
42 31 18 18 11 7 6 5 4 4 5 5 6 40 63 62 71 69 72 85 95 89 80 100 67 84 72 48 15 16 14 14 14 16 38 84 99 89
26 21 21 12 9 7 5 4 4 6 6 6 32 50 59 63 67 78 81 87 87 82 77 99 78 86 70 18 20 32 38 42 37 28 17 53 89 93
24 19 11 8 8 6 3 4 6 7 10 30 56 59 63 61 61 64 66 70 52 41 48 46 69 89 54 21 34 37 59 62 69 78 74 69 45 73
18 10 9 8 5 3 4 6 7 14 53 66 63 61 61 58 54 52 49 31 21 20 22 19 30 83 30 45 53 60 86 63 69 50 38 78 81 68
11 10 8 5 4 5 6 6 16 61 75 82 83 79 71 53 43 25 19 18 16 17 14 15 28 68 50 84 71 86 100 98 99 17 9 12 32 34
10 8 5 4 5 6 8 31 67 74 78 73 74 54 28 18 17 17 16 15 15 18 16 14 38 74 33 55 86 99 55 21 26 22 14 9 8 7
9 4 3 5 6 10 47 73 65 40 28 26 24 23 21 21 24 29 23 19 15 12 14 15 44 78 39 57 81 64 36 49 55 48 34 10 7 7
5 4 6 6 13 63 59 32 31 29 25 26 27 26 26 31 29 24 24 26 30 19 15 15 52 82 51 69 76 37 68 79 78 86 82 40 8 9
4 5 6 20 60 34 27 19 19 19 20 24 29 33 33 36 32 26 36 39 43 38 22 19 44 76 77 98 40 51 85 95 93 91 86 86 45 9
5 6 25 60 32 26 21 23 24 24 24 25 30 43 48 49 46 30 38 50 44 38 39 27 51 76 90 98 73 47 96 91 65 80 93 96 98 45
5 23 54 27 20 24 28 30 26 26 26 28 28 33 56 68 64 42 46 46 44 40 36 29 98 88 96 97 100 54 96 92 66 86 96 85 86 97
14 50 23 22 27 28 28 23 25 28 31 32 28 31 55 87 82 55 50 50 46 40 33 33 100 95 100 100 100 51 74 98 73 86 97 94 100 98
46 23 26 31 30 26 20 22 33 40 41 51 62 68 79 89 88 66 49 47 46 46 36 39 100 98 100 100 97 92 60 88 98 97 77 74 82 92
27 30 35 33 26 19 18 26 46 49 53 59 63 66 73 78 78 66 57 49 50 48 40 45 100 96 100 100 97 90 53 84 73 71 63 70 60 64
30 38 38 31 20 18 24 44 58 61 67 75 80 78 77 73 72 67 58 55 52 54 50 40 100 97 100 100 100 92 52 80 75 68 58 61 59 49
37 43 42 23 22 33 46 52 62 69 71 82 93 90 82 80 77 70 66 61 56 52 56 39 100 98 93 100 100 100 81 51 58 66 55 50 43 44

GFSNE_500_rhum_048.txt.gz
RH
38 62 77 70 62 60 57 57 56 49 48 41 37 34 29 23 19 18 15 10 6 4 2 2 2 3 4 5 6 7 7 6 5 5 4 4 3 3
69 83 85 63 65 63 62 63 57 48 42 38 30 22 17 14 12 9 6 3 2 2 3 4 12 22 34 44 50 41 35 33 32 31 29 24 18 9
83 85 60 68 69 66 64 56 46 45 37 27 19 11 8 8 6 4 2 3 4 9 32 34 46 52 47 48 48 52 57 62 62 61 63 61 50 37
74 61 76 69 67 64 53 49 39 27 23 11 9 8 7 4 3 2 4 6 30 52 46 58 66 61 57 58 62 60 69 69 66 63 63 62 63 65
74 78 70 68 62 55 53 32 30 15 9 9 9 6 4 2 3 4 19 54 61 60 58 64 66 64 63 58 58 63 62 58 44 48 54 54 50 57
76 68 70 63 60 49 34 28 13 10 9 9 6 3 3 4 5 30 51 65 66 72 63 71 73 68 64 56 56 58 53 17 15 13 13 13 18 26
69 72 65 63 39 34 20 12 11 10 8 5 3 4 5 8 33 49 57 66 82 75 76 90 73 71 71 60 60 69 42 16 18 18 20 18 13 12
73 70 57 37 32 15 13 12 10 8 5 3 4 5 21 40 52 60 63 64 80 90 69 98 74 71 68 63 62 74 26 24 25 32 37 39 36 31
73 46 38 27 15 15 12 11 7 4 4 5 6 30 50 57 55 67 69 62 64 58 51 34 34 26 22 25 40 66 30 35 54 80 88 70 72 61
45 38 24 17 16 14 12 8 4 4 6 16 44 57 55 53 48 45 44 30 28 21 21 18 18 16 16 15 29 48 44 65 86 58 27 16 10 9
39 22 18 17 14 10 8 4 5 11 46 68 63 55 40 24 19 18 18 17 17 20 15 14 15 14 17 23 51 40 64 95 51 27 47 51 31 13
22 20 18 14 10 7 4 4 20 61 59 36 25 22 21 20 20 20 20 19 19 20 17 15 18 14 22 76 74 50 95 89 45 66 84 84 83 37
20 19 16 11 6 4 5 29 54 32 22 18 18 18 21 21 23 23 22 22 20 18 20 19 19 17 14 85 93 78 100 45 80 93 93 90 93 74
20 18 13 6 4 5 32 48 20 17 18 21 23 22 22 23 26 31 33 34 26 26 27 27 19 17 19 97 58 95 97 69 86 80 84 93 94 95
18 13 6 4 5 39 40 18 19 23 22 21 21 22 23 24 26 38 48 43 38 39 34 33 25 21 48 69 86 72 51 98 82 79 96 86 92 91
13 6 5 6 45 28 18 19 22 20 17 20 26 28 28 26 28 40 61 56 47 60 42 36 29 22 98 73 85 54 62 92 85 85 93 87 81 97
7 5 7 44 25 22 26 25 17 17 25 38 39 41 47 43 42 57 81 67 44 46 55 42 33 26 92 100 100 72 57 100 87 89 78 87 91 92
4 7 42 25 28 31 23 17 17 26 44 50 53 54 59 65 79 86 88 77 53 51 45 44 37 45 94 78 86 100 82 90 89 80 67 76 88 95
6 43 27 34 34 22 17 22 30 40 54 57 59 62 67 71 70 77 75 68 56 48 44 45 34 90 99 98 96 99 72 100 92 72 72 70 84 88
34 31 36 37 29 18 25 32 40 50 59 62 62 75 82 76 74 75 71 64 65 60 51 47 39 98 94 100 100 100 61 80 69 64 67 67 87 82
38 35 40 39 23 24 35 46 51 54 54 59 62 68 74 74 75 69 69 60 55 49 46 46 46 100 91 100 100 86 68 73 57 56 58 63 62 72
32 40 44 30 30 33 43 58 73 77 78 74 73 74 74 78 79 71 66 65 58 50 45 46 61 100 95 99 100 97 62 68 58 44 50 46 35 27
40 43 43 32 38 46 51 66 88 95 100 100 90 94 100 100 93 78 69 68 62 54 46 47 82 96 90 98 100 100 88 56 55 50 47 43 41 39

GFSNE_500_rhum_051.txt.gz
RH
57 64 54 47 58 67 68 58 50 46 52 52 46 44 41 35 28 22 17 13 10 10 8 4 2 2 2 3 9 22 26 25 19 16 12 8 5 4
70 53 52 68 75 66 57 62 60 52 40 45 43 38 29 22 17 15 13 11 8 4 3 2 3 4 15 35 48 54 55 54 54 55 53 49 41 33
51 66 80 73 62 62 66 60 52 49 44 42 34 24 18 16 12 8 6 6 3 3 4 6 22 31 49 52 50 54 55 59 63 60 60 57 53 47
79 82 68 66 72 66 58 54 53 50 40 28 20 17 13 9 6 5 4 3 4 5 31 44 45 54 55 52 57 59 61 67 66 71 67 59 53 48
78 69 76 74 64 57 56 54 47 35 24 18 13 10 7 6 5 3 3 5 14 40 49 52 53 64 64 60 61 59 59 61 65 63 47 20 16 16
76 79 76 62 59 58 54 44 29 20 17 12 9 7 6 4 3 4 12 36 46 55 60 61 57 66 67 62 63 52 51 56 61 55 47 23 24 21
80 77 61 62 60 52 38 24 18 12 10 9 8 7 3 3 6 31 44 50 75 66 53 83 53 65 64 63 56 47 50 48 53 62 48 25 25 27
71 61 65 59 46 33 22 14 12 10 9 9 6 3 5 30 43 50 46 50 51 91 50 61 49 52 43 36 38 35 30 26 24 62 38 34 45 42
61 66 58 44 31 22 13 9 9 11 9 5 4 17 43 40 27 17 20 18 22 21 18 18 19 18 17 17 18 18 17 15 16 54 41 55 28 23
68 58 42 27 19 10 6 6 9 9 4 4 34 39 15 11 9 9 10 11 22 21 14 12 22 21 18 17 13 12 12 12 31 48 59 37 51 57
56 37 25 12 8 6 5 7 8 4 9 45 25 14 13 14 13 12 12 12 17 26 23 19 19 18 24 22 16 13 13 16 57 54 56 54 75 68
33 21 9 7 6 6 6 6 4 20 40 21 20 20 19 18 15 13 13 13 15 24 30 25 25 25 26 34 21 18 21 58 62 69 59 87 74 72
12 9 8 7 7 8 5 4 28 27 20 22 22 19 17 16 17 20 21 20 21 29 36 31 32 37 32 25 40 35 78 94 67 78 92 78 84 83
9 8 7 8 8 4 5 31 21 23 24 20 17 17 18 26 35 32 30 26 28 32 45 33 38 35 31 28 42 99 100 94 72 77 83 88 94 91
8 8 8 7 4 6 32 21 28 21 16 17 19 27 38 45 45 43 50 41 57 68 62 38 42 38 34 30 97 100 100 98 61 80 88 91 73 78
8 7 6 4 5 32 28 30 19 17 19 22 31 40 46 51 54 54 57 64 78 97 78 45 48 41 35 50 100 100 100 58 73 93 94 88 71 77
7 5 4 5 33 32 33 19 19 23 30 34 36 38 50 53 74 74 68 64 68 70 76 64 51 44 35 90 100 89 83 66 67 81 85 94 74 86
5 4 5 30 33 37 25 22 26 38 51 54 56 54 56 59 69 89 80 73 65 64 57 49 48 51 36 90 87 90 84 73 88 88 79 79 83 88
4 5 25 34 38 33 24 26 37 49 65 71 72 78 80 79 70 77 81 79 78 65 53 48 48 42 57 100 92 68 90 82 89 80 65 67 68 61
4 13 36 38 41 28 31 36 40 50 77 92 95 97 98 94 94 92 94 82 73 68 57 48 45 39 87 100 100 100 77 73 76 63 54 53 33 87
7 37 39 43 35 31 43 46 52 69 96 99 99 100 100 93 93 98 96 82 60 55 60 49 42 47 92 94 100 100 67 72 55 43 45 42 42 96
35 38 43 44 34 33 50 56 73 96 100 100 100 100 100 100 98 95 89 78 66 52 59 50 39 88 86 96 100 100 91 60 50 36 39 43 55 97
39 46 46 48 34 35 50 69 84 97 100 100 100 100 100 100 100 91 84 74 68 65 55 38 64 91 89 99 100 100 100 64 46 42 41 42 66 99

GFSNE_500_rhum_054.txt.gz
RH
45 47 56 77 69 52 60 69 50 29 44 58 52 49 44 41 36 28 22 17 12 8 5 4 4 3 3 2 2 2 3 4 6 11 13 14 16 16
50 64 82 64 51 75 70 57 61 61 50 50 44 40 37 30 22 15 9 6 5 4 4 3 3 2 2 3 9 26 38 47 55 56 56 54 51 47
78 82 60 60 84 67 65 73 70 58 49 45 40 32 22 12 8 6 6 5 4 3 3 2 3 7 19 27 43 50 57 60 64 66 68 66 62 55
81 57 77 81 67 74 74 70 56 52 45 37 27 17 10 7 7 7 4 4 3 3 4 17 33 33 34 43 50 56 60 68 71 73 75 74 61 61
61 87 75 76 78 77 64 56 52 45 32 20 9 7 8 8 5 4 3 3 9 17 39 37 38 43 46 50 53 52 56 63 71 77 76 67 63 63
86 75 81 81 74 59 57 52 43 28 9 7 8 8 5 4 4 3 3 26 46 42 44 50 36 41 43 42 39 36 37 48 58 63 63 65 62 59
82 82 81 64 60 57 51 40 21 8 7 8 7 6 5 3 3 11 36 30 18 14 10 18 13 18 23 27 32 32 29 33 34 41 43 40 37 47
86 75 62 62 58 53 29 9 8 7 7 8 7 5 3 5 25 26 11 10 12 18 12 13 10 16 15 16 16 15 16 18 19 19 25 24 20 20
68 62 63 62 52 22 8 8 8 8 8 8 5 3 15 25 12 10 13 14 15 15 13 12 14 18 18 21 16 14 13 14 14 14 14 13 14 23
63 64 66 52 33 12 9 9 9 9 6 4 5 22 17 14 18 18 18 17 15 16 16 13 16 21 28 29 21 18 16 15 14 13 14 14 19 50
71 67 49 35 21 11 11 12 10 7 5 10 26 18 21 20 19 18 15 13 18 28 28 18 23 27 38 40 34 27 24 19 16 16 15 33 60 60
63 47 35 29 14 13 12 9 8 5 13 25 25 21 19 17 17 19 22 28 34 34 36 24 25 32 36 66 71 41 30 22 17 17 39 62 62 45
43 37 29 17 14 12 11 9 5 12 26 28 22 18 17 22 25 27 38 43 45 47 46 32 36 51 40 34 72 43 27 25 25 64 84 69 58 72
36 25 19 15 12 11 10 4 15 29 30 22 20 27 34 37 39 38 41 40 58 49 51 54 52 57 43 44 42 48 31 42 94 99 93 85 82 96
24 20 15 13 10 8 4 13 32 32 23 22 33 44 53 51 50 47 56 50 75 73 64 54 61 54 42 39 41 44 68 100 95 78 74 73 95 84
19 15 15 10 7 4 12 35 36 24 24 29 38 52 71 77 81 78 74 76 63 87 86 60 62 51 44 43 42 74 91 100 100 82 68 85 87 69
13 13 10 6 4 10 37 39 27 30 35 40 53 68 89 94 99 100 91 84 70 63 76 81 69 55 45 36 52 93 100 100 82 67 73 78 76 74
14 10 6 4 8 37 42 32 37 43 49 62 76 87 89 95 100 98 94 92 86 79 68 60 61 58 51 36 82 100 87 73 72 72 57 52 66 66
10 6 5 7 37 43 38 33 43 51 65 76 82 85 88 98 92 97 97 92 93 92 73 49 49 45 42 48 84 79 70 76 73 74 59 55 48 47
7 5 7 35 43 43 34 34 44 66 78 80 86 85 85 93 95 95 96 87 79 64 58 46 45 43 38 98 97 86 53 63 66 77 68 47 45 58
5 7 34 42 47 42 35 46 60 75 78 74 62 80 100 100 99 90 87 83 70 63 49 38 48 39 87 91 99 100 94 62 57 48 44 41 45 58
6 30 40 47 57 38 52 63 76 80 75 54 68 98 100 100 100 99 78 73 64 52 38 47 43 83 89 96 100 100 100 100 63 38 32 30 35 67
21 40 48 59 53 49 69 67 78 84 48 69 96 85 83 83 68 58 63 51 51 52 49 56 94 92 100 100 100 99 92 80 59 48 34 30 38 86

GFSNE_500_rhum_057.txt.gz
RH
97 94 62 58 57 69 79 65 54 54 43 74 66 62 56 51 45 39 31 24 16 13 12 10 8 8 8 7 5 3 2 2 2 2 3 3 4 5
88 73 62 63 84 88 67 67 64 48 40 50 51 52 48 44 35 23 12 14 15 12 9 8 9 7 4 2 2 4 13 20 24 31 34 37 42 45
88 73 64 92 92 68 79 66 74 66 50 51 49 46 42 33 21 15 18 17 10 8 9 7 4 3 4 12 24 26 32 35 42 49 54 54 57 57
83 70 98 87 77 80 70 77 70 61 56 49 48 37 22 14 15 20 14 10 8 6 4 3 7 26 30 32 28 32 34 44 49 57 64 65 66 61
87 99 87 88 74 75 77 69 62 61 56 49 30 17 14 17 19 12 8 5 4 4 12 32 30 20 12 11 15 27 33 36 43 52 59 65 75 70
98 94 91 75 78 79 67 61 60 57 51 36 20 19 20 13 7 5 4 4 13 23 20 13 12 13 11 10 10 8 7 8 26 39 46 45 54 67
96 82 76 74 75 64 60 56 57 50 38 30 24 16 9 5 5 5 6 15 15 15 15 18 17 16 16 15 14 13 11 8 8 9 17 22 25 36
81 76 77 69 63 59 58 58 49 36 28 19 15 7 5 5 5 8 16 14 20 20 18 18 17 16 17 18 16 15 14 13 11 11 12 14 17 18
81 73 66 62 59 62 57 43 35 25 19 12 7 6 5 5 11 20 22 21 16 13 11 10 20 25 25 26 22 18 16 15 15 15 16 14 15 16
66 64 59 61 63 54 42 29 18 12 10 8 7 5 5 22 25 24 19 15 15 19 16 12 25 34 36 37 26 21 20 24 24 22 21 19 17 16
61 61 66 62 52 40 27 15 10 10 9 8 6 7 26 25 22 19 19 25 26 28 30 20 25 28 45 49 49 33 33 36 33 31 25 24 20 17
70 68 60 48 37 26 18 12 10 8 8 5 13 31 24 23 27 30 33 39 43 44 50 37 35 40 42 83 100 76 58 51 38 28 25 22 18 18
68 59 44 32 23 17 13 10 8 7 5 16 35 24 24 31 37 42 51 62 71 76 73 58 52 51 62 52 98 95 71 54 39 33 24 20 48 77
54 41 30 21 17 14 11 10 7 4 23 37 27 27 31 39 51 68 88 100 100 99 86 72 58 53 59 69 64 82 60 49 37 30 48 74 76 68
37 25 18 18 17 14 11 6 4 29 39 30 34 42 47 55 78 88 100 100 100 100 88 70 63 58 59 57 47 55 47 44 28 65 72 75 80 62
23 22 20 18 13 9 5 5 31 41 34 34 40 45 58 79 94 100 100 97 91 97 100 82 71 62 58 52 47 42 40 38 64 75 93 98 69 68
22 18 15 12 9 5 7 33 43 36 34 37 51 71 84 86 73 72 82 85 85 85 90 99 82 66 52 44 39 41 44 82 87 100 97 100 88 75
15 12 13 10 5 8 37 47 41 35 46 58 77 76 56 57 82 100 100 95 80 83 72 58 76 63 59 51 28 50 72 100 100 100 77 73 83 76
11 11 8 6 8 37 47 44 41 55 58 72 58 61 77 85 95 100 100 99 80 78 65 46 53 40 44 50 39 78 91 100 100 90 68 62 50 56
11 9 6 8 38 48 51 44 55 57 64 58 71 46 40 46 57 76 81 70 67 66 53 40 36 36 37 63 94 79 48 55 58 68 73 69 62 55
7 6 8 37 47 56 46 53 53 58 61 76 35 37 39 42 51 57 60 50 48 45 39 33 42 80 90 89 97 100 98 70 44 36 40 46 44 41
6 8 36 46 58 54 53 54 65 58 80 82 49 37 37 41 48 51 50 48 44 46 66 90 99 99 94 93 99 100 100 100 84 44 26 24 25 26
8 31 44 52 63 55 55 67 58 75 82 86 89 74 62 63 66 74 83 92 95 96 99 100 98 99 100 100 99 100 100 96 74 64 46 35 35 48

GFSNE_500_rhum_060.txt.gz
RH
72 67 66 82 86 84 76 69 62 68 75 85 74 69 65 57 53 49 46 42 39 30 29 28 25 21 16 13 10 8 7 5 3 2 2 2 2 3
80 68 76 87 87 87 71 74 89 76 63 63 64 59 56 56 50 48 46 37 31 28 24 18 14 12 9 7 5 3 2 3 4 6 18 18 22 22
76 74 94 95 86 77 83 93 88 77 55 50 45 53 51 50 51 47 41 34 27 20 10 7 8 8 7 4 4 7 16 23 27 29 28 29 31 38
71 94 97 96 84 88 96 95 76 74 56 46 51 48 47 48 43 38 31 20 13 8 7 8 7 5 5 11 18 15 11 10 9 10 26 33 37 45
86 99 93 89 92 98 90 72 72 67 63 54 48 49 46 42 34 18 9 8 7 7 6 5 5 10 14 13 13 13 12 10 10 10 9 8 18 35
99 92 92 94 100 83 68 66 65 63 61 56 51 46 39 24 11 9 10 8 7 6 6 11 16 17 19 18 16 14 14 14 14 16 15 13 10 10
83 91 95 97 73 60 59 63 60 59 58 53 46 38 24 12 10 10 8 7 5 8 19 21 20 17 14 13 12 11 10 9 10 11 14 16 14 10
92 94 85 64 55 60 60 60 62 62 54 42 28 18 11 10 10 8 6 5 10 22 23 20 18 18 19 19 20 18 16 14 17 18 16 16 17 15
94 65 56 57 60 59 62 66 64 49 35 26 17 14 13 12 10 7 7 23 26 22 20 18 24 29 32 36 37 31 26 19 18 22 22 20 23 22
55 56 61 61 60 65 66 57 43 33 22 18 17 16 13 8 5 10 31 28 24 23 27 20 30 39 50 62 59 49 38 25 25 28 25 27 34 31
63 62 58 61 71 64 49 38 28 20 19 17 13 9 6 5 22 34 28 25 25 27 47 35 47 53 64 79 73 70 52 36 36 40 36 39 39 34
62 61 65 64 56 45 32 23 22 18 13 11 8 5 12 37 34 30 31 32 36 37 78 63 72 79 65 74 78 100 85 56 44 49 47 45 41 33
70 73 65 52 41 29 24 20 14 10 8 6 5 26 40 36 36 38 44 53 65 84 100 90 81 74 68 61 62 100 86 66 55 57 50 45 40 32
65 56 44 34 26 21 16 13 9 8 5 8 37 40 36 34 40 59 88 99 97 84 73 70 57 53 59 59 69 91 86 76 64 59 50 44 38 49
47 40 31 24 15 12 10 9 6 5 17 41 41 37 41 56 71 72 68 74 81 98 99 95 66 55 59 70 54 70 67 72 55 50 43 39 71 71
36 29 19 13 10 8 7 5 6 27 40 39 39 49 57 59 55 44 40 54 93 100 100 95 67 61 63 76 56 51 53 50 54 40 29 72 82 88
27 20 12 8 7 6 5 6 35 41 40 41 47 54 49 28 31 34 42 58 89 98 100 84 69 55 64 54 40 44 49 44 31 48 72 98 100 92
14 9 8 7 5 5 8 39 41 43 42 46 56 50 24 26 30 36 41 49 54 61 61 64 55 54 57 52 30 37 56 44 72 88 90 94 100 88
11 9 8 4 5 8 40 45 46 44 45 54 68 34 26 26 30 35 36 32 35 36 36 40 40 35 41 51 39 69 77 76 90 100 92 78 72 91
11 8 4 5 8 39 45 49 46 48 52 66 71 56 50 52 54 56 56 52 51 52 54 64 74 86 96 100 100 95 69 77 84 86 87 82 64 52
9 4 5 8 39 45 54 49 51 49 70 72 69 66 66 71 77 84 92 94 99 100 100 100 100 95 97 100 100 100 100 83 69 48 38 40 42 41
4 6 8 40 46 57 54 53 53 59 76 76 74 66 61 66 79 91 97 100 99 99 97 99 100 100 100 100 100 100 100 100 100 89 66 57 51 58
6 8 41 47 59 60 48 65 50 66 83 79 77 63 58 68 87 98 100 100 98 100 100 100 100 99 100 100 100 100 100 100 100 100 100 98 100 97

GFSNE_500_rhum_063.txt.gz
RH
43 37 42 45 83 65 73 68 76 67 72 87 90 91 87 78 60 49 46 48 44 41 40 39 37 34 31 26 20 14 12 10 8 6 4 3 3 2
38 50 44 42 47 80 72 76 75 71 72 75 86 85 68 62 56 52 50 44 43 42 39 36 31 24 18 14 11 8 7 6 4 3 3 3 4 6
49 48 46 54 76 74 65 99 96 84 78 75 75 61 52 54 56 49 46 44 43 41 34 27 20 13 9 8 6 4 5 5 4 6 11 13 14 16
63 61 58 63 85 60 99 99 90 85 80 70 50 47 52 51 47 46 47 43 36 28 20 12 9 9 9 8 7 6 5 10 14 13 13 12 12 11
99 98 76 84 86 100 100 94 90 88 63 48 49 52 48 51 46 41 36 32 25 18 13 11 11 10 9 6 6 15 19 19 17 15 13 12 12 14
59 50 79 88 100 99 89 92 85 54 55 58 53 51 47 42 39 30 23 18 15 14 12 9 8 6 7 15 22 21 19 17 15 13 13 14 13 11
100 100 100 94 98 95 97 63 52 57 60 56 53 45 41 35 26 19 15 10 9 9 7 5 6 16 23 24 23 20 20 19 20 21 23 22 22 20
92 96 98 96 99 76 58 56 61 62 59 50 43 39 29 21 15 11 9 8 6 4 6 15 27 26 25 25 27 30 28 31 34 35 36 37 36 29
100 98 100 93 62 58 66 68 63 62 50 44 35 26 19 13 9 7 5 4 4 17 32 33 27 26 29 32 40 43 46 51 53 52 52 54 46 32
96 97 84 64 73 76 66 60 57 51 40 29 22 14 9 8 6 4 4 13 32 36 34 32 32 33 37 44 61 73 87 92 80 68 65 56 48 50
86 65 75 81 68 62 52 49 43 36 26 17 12 8 6 4 4 11 33 36 35 35 39 38 45 50 60 73 87 100 100 100 87 75 58 47 56 64
82 83 68 64 56 54 44 38 30 22 16 10 7 5 4 12 34 37 37 39 46 48 60 52 57 61 58 63 59 92 100 100 94 77 55 54 62 63
72 69 60 56 48 41 33 27 20 12 9 7 4 5 24 36 38 42 46 36 25 27 34 33 37 70 80 67 71 85 97 98 77 66 62 55 57 53
64 58 50 44 38 30 22 16 12 11 8 4 8 30 35 39 42 37 20 19 21 26 39 55 70 90 87 78 73 94 100 85 80 80 62 53 41 40
51 43 38 32 25 21 17 15 13 7 4 13 34 36 36 43 24 16 20 20 25 32 37 47 60 69 69 64 57 92 75 86 75 66 54 50 45 44
40 36 29 25 22 16 13 12 6 4 17 34 35 34 49 29 26 33 35 31 26 31 32 31 40 45 49 52 50 50 51 48 57 49 35 34 51 80
33 29 26 21 17 14 11 4 5 24 37 34 32 51 50 45 51 57 65 69 71 54 35 37 37 40 40 35 41 49 51 64 49 37 45 69 88 92
29 24 19 14 11 6 4 6 29 42 38 38 50 54 53 52 60 70 75 79 78 83 90 98 92 76 66 68 60 55 88 93 65 64 71 86 100 88
18 9 7 6 4 5 7 39 48 44 44 47 62 58 54 58 64 75 88 97 100 99 94 96 100 100 100 100 93 61 60 94 100 93 75 93 100 100
9 7 4 4 5 13 41 49 44 50 47 63 66 61 54 55 68 88 89 86 94 100 100 97 96 97 100 100 100 100 86 82 89 98 100 94 84 83
6 3 4 6 23 39 50 42 54 49 54 69 68 64 53 57 68 82 89 98 98 100 100 99 100 98 98 100 100 100 100 99 98 98 99 100 100 100
3 5 13 30 38 48 37 55 56 42 63 71 72 72 60 53 61 81 95 100 100 100 100 100 97 100 100 100 100 100 100 100 100 95 82 84 98 100
8 20 24 40 46 31 52 60 48 34 54 73 79 78 69 57 66 92 100 100 100 100 97 100 100 100 100 100 100 99 100 99 97 100 59 51 58 64

GFSNE_500_rhum_066.txt.gz
RH
74 86 96 100 96 54 50 51 47 44 67 99 98 99 92 92 87 83 80 54 38 39 43 42 40 37 35 33 32 29 22 14 8 5 4 4 4 3
81 86 92 99 94 80 62 51 54 51 64 74 88 100 99 98 98 79 48 42 49 47 44 40 36 32 29 23 19 15 11 7 6 6 6 5 5 5
77 85 97 96 64 58 92 91 61 66 78 80 100 100 96 92 67 50 51 52 50 47 43 37 30 20 13 10 8 7 7 8 7 7 6 6 6 5
98 81 94 63 71 83 97 96 82 85 70 84 94 94 86 60 57 60 58 52 46 42 36 26 19 13 8 9 9 9 8 6 5 5 4 5 6 11
79 97 80 64 86 99 95 77 99 99 98 90 87 69 61 65 64 56 49 43 35 29 22 15 11 10 10 8 7 6 4 4 5 7 16 21 21 19
95 80 67 99 99 94 99 100 100 100 98 83 65 70 75 65 54 44 35 29 23 16 12 11 9 7 5 4 4 6 10 18 23 24 24 21 20 19
82 66 88 99 100 98 100 100 100 95 77 78 81 75 62 51 39 30 24 17 13 9 7 5 4 5 11 20 27 29 29 27 26 25 24 24 22 22
92 97 100 97 99 99 100 94 94 83 88 80 68 56 41 30 26 20 15 11 7 5 4 9 28 34 35 37 38 37 35 33 31 30 30 29 26 24
94 99 98 99 91 99 97 83 91 89 72 58 43 34 28 23 16 14 10 6 4 8 23 26 32 36 45 51 53 53 56 58 56 53 47 43 39 40
100 93 96 100 100 89 82 86 72 62 48 40 34 26 19 16 11 7 5 4 15 20 23 11 13 13 16 22 30 48 86 100 100 94 91 83 77 74
99 96 92 92 92 84 73 59 49 41 37 30 24 20 14 11 8 4 8 18 15 16 17 17 17 13 19 29 42 56 100 100 97 91 80 66 57 56
91 94 89 77 72 58 48 38 36 33 28 25 21 17 13 7 5 16 16 18 22 29 31 26 20 19 24 49 97 100 100 100 96 85 67 55 48 52
93 82 69 57 48 37 34 33 30 27 23 19 14 8 4 10 24 22 30 30 37 42 42 45 30 27 30 38 59 76 79 76 68 64 53 51 59 61
70 56 46 37 35 34 32 29 23 16 10 7 5 4 17 30 25 42 39 46 48 46 48 45 59 56 33 37 51 49 49 56 60 69 66 60 56 55
43 36 36 35 34 31 23 14 10 9 6 4 7 31 33 30 44 45 46 50 60 64 67 64 58 66 67 70 39 42 47 63 57 54 53 50 49 45
36 35 34 30 22 16 12 10 6 4 4 17 40 38 35 52 44 40 48 57 73 88 88 87 88 81 73 58 69 75 40 61 73 56 49 44 52 54
36 30 23 17 10 7 5 4 4 7 30 36 34 38 55 54 49 46 53 71 79 85 96 98 93 98 91 75 69 71 83 100 99 99 89 73 69 75
27 19 11 6 4 3 3 5 20 37 37 38 40 56 62 57 51 52 62 74 79 91 86 88 93 100 100 96 69 76 89 90 100 100 88 98 100 84
13 7 4 3 3 4 12 31 34 36 45 42 58 64 65 57 51 53 57 73 89 91 91 89 88 86 95 100 95 76 76 90 96 100 100 100 100 100
7 4 3 4 10 22 27 29 41 50 38 50 65 66 68 65 50 50 65 76 88 100 100 94 90 86 88 96 100 100 98 99 100 100 100 100 100 100
4 3 6 16 23 23 26 42 51 40 31 45 63 69 69 68 55 61 74 80 86 99 100 96 94 94 96 99 100 100 99 94 94 86 89 91 90 100
4 11 17 24 25 20 36 47 52 38 28 37 57 78 80 65 61 76 83 94 100 98 100 98 97 98 98 100 97 99 99 96 90 90 89 74 54 66
13 18 25 28 21 20 35 46 51 42 30 31 66 87 88 82 73 79 90 94 99 100 92 100 100 97 99 100 95 88 99 95 93 100 100 97 89 40

GFSNE_500_rhum_069.txt.gz
RH
88 74 74 95 86 74 76 96 93 98 99 90 94 70 88 71 74 69 64 68 70 67 70 56 52 55 56 54 47 40 36 32 29 25 21 16 12 11
91 77 81 81 79 82 82 80 87 91 70 68 93 98 95 85 80 79 84 83 83 65 60 64 66 60 50 44 37 31 26 23 20 17 14 10 6 6
86 72 79 85 92 94 92 100 99 89 91 100 100 98 98 98 96 97 90 83 72 72 76 67 55 45 34 26 21 16 13 12 11 12 12 12 11 10
66 44 58 87 89 98 96 100 99 87 82 77 97 96 100 99 97 96 80 82 86 71 60 43 31 23 17 15 14 13 12 12 8 5 4 5 5 5
33 52 78 100 83 95 95 100 81 84 93 98 97 99 98 99 94 91 92 78 66 44 30 22 17 15 11 9 10 8 5 4 3 4 5 7 8 8
58 78 100 91 100 99 93 85 94 99 98 98 100 99 90 95 91 79 70 47 33 27 21 17 12 9 7 5 4 5 10 15 17 20 25 25 21 19
74 94 100 98 96 90 92 97 94 99 99 100 92 86 86 85 71 51 34 26 23 22 17 12 7 5 7 15 15 12 12 12 11 11 27 38 35 29
98 100 100 100 91 98 98 99 100 98 100 94 92 94 80 52 38 28 26 25 22 17 11 6 5 13 15 18 22 19 14 11 10 11 15 40 49 37
67 93 93 91 99 100 100 100 100 94 90 93 88 54 40 31 28 27 23 16 12 7 5 5 14 22 30 32 27 17 13 13 16 24 36 41 63 76
99 100 98 99 100 96 91 93 96 93 86 56 38 30 29 28 23 17 12 9 6 6 9 16 31 34 42 43 30 24 21 18 24 40 56 54 48 58
100 99 98 98 98 97 97 94 72 48 37 32 31 28 23 16 13 10 6 4 7 18 24 24 40 38 51 58 50 34 24 24 30 38 57 74 80 83
99 98 98 98 99 86 54 40 33 33 30 25 18 14 12 10 6 4 5 14 16 30 27 33 47 54 54 81 80 53 34 31 32 38 47 55 62 65
92 92 86 63 48 37 33 30 21 14 11 10 11 9 4 4 6 15 18 22 34 32 39 40 58 67 71 71 96 82 58 53 36 37 41 41 49 55
71 57 44 37 34 29 23 16 11 8 7 4 3 3 6 17 27 23 34 42 37 37 48 47 64 74 81 81 80 84 86 72 56 71 87 66 42 38
43 39 35 28 20 15 11 9 6 4 3 3 4 14 31 30 26 49 47 42 46 50 47 56 66 82 79 72 72 72 83 86 73 83 86 86 59 38
39 34 26 19 14 9 6 4 3 3 5 15 29 33 32 38 52 50 47 44 53 62 60 70 76 84 86 75 65 71 69 80 98 99 100 100 94 74
36 28 21 11 7 6 4 4 8 16 22 26 31 33 50 57 56 50 45 47 47 69 89 86 83 89 84 65 76 65 73 80 82 94 100 100 100 85
31 21 11 8 5 4 9 15 17 25 30 29 36 51 60 61 61 56 46 45 58 71 74 77 87 100 98 85 70 96 90 97 100 100 100 100 100 95
16 10 7 5 6 14 15 16 25 30 28 27 39 51 62 61 59 56 50 61 77 81 73 74 88 93 100 100 92 89 99 100 97 97 98 93 100 100
10 7 5 9 15 16 15 19 29 31 27 24 32 46 65 71 65 52 60 72 79 81 86 84 91 99 94 96 100 100 82 78 77 83 89 98 98 94
7 5 9 14 16 17 16 22 30 35 32 27 36 63 71 73 66 56 68 74 68 72 87 96 99 97 91 97 98 100 92 78 76 73 80 83 95 100
6 8 13 17 19 18 16 18 25 34 35 30 30 38 56 70 72 72 70 67 71 69 89 97 99 100 94 95 100 100 100 100 97 92 86 82 77 77
7 13 15 21 23 22 24 19 19 24 36 39 38 38 33 38 46 48 45 44 60 61 83 100 100 97 94 94 97 96 100 99 100 100 100 90 86 87

GFSNE_500_rhum_072.txt.gz
RH
68 88 78 82 84 86 95 84 69 84 96 85 80 84 100 98 82 70 96 99 94 82 82 79 73 76 67 61 60 62 59 54 48 43 38 33 30 27
82 89 87 87 73 86 94 84 92 87 99 89 96 99 98 97 98 96 89 95 94 93 88 87 88 77 68 69 65 61 48 35 26 20 16 15 14 13
42 51 57 97 56 46 88 98 80 70 91 97 99 99 100 96 99 98 98 96 92 98 100 88 73 75 68 53 39 28 20 17 17 16 14 12 10 9
33 40 37 35 87 59 97 62 67 99 96 98 98 96 96 99 97 100 99 98 96 95 85 78 75 55 36 26 21 20 19 15 11 9 8 6 4 3
55 59 54 38 59 70 45 50 99 98 99 100 98 96 90 95 94 97 96 97 94 95 90 66 42 28 24 23 20 14 10 7 5 4 4 6 8 10
72 80 73 45 60 66 66 84 100 100 100 92 98 100 88 99 100 99 96 97 92 63 42 32 29 26 20 12 9 6 4 4 6 13 19 19 17 15
86 85 82 70 89 89 100 98 100 96 96 96 100 100 100 98 85 84 76 55 40 31 29 29 24 15 12 10 5 4 7 16 18 23 26 22 17 12
100 89 100 100 100 100 100 96 100 98 100 99 100 97 96 82 62 45 35 28 25 26 18 15 12 9 5 9 15 24 24 27 27 29 28 24 16 12
100 83 80 92 96 96 100 100 98 92 99 98 93 76 51 38 32 24 16 12 12 11 8 7 4 8 18 30 35 32 31 38 46 40 34 26 17 20
93 84 69 84 100 99 100 99 98 97 76 55 40 32 26 17 11 10 8 6 4 3 3 4 14 22 34 42 41 44 45 55 63 59 41 30 20 26
100 100 99 100 100 100 96 83 64 44 36 31 23 14 11 8 7 6 4 3 3 8 13 14 33 29 42 60 64 60 66 69 68 68 50 49 26 24
98 100 100 95 86 71 52 41 35 30 20 14 11 8 6 5 4 3 3 6 16 18 22 27 40 42 46 93 91 78 76 73 72 64 53 52 60 55
90 82 69 58 47 38 36 32 24 18 12 8 6 5 4 4 4 9 16 17 27 34 26 24 45 51 59 64 95 79 72 73 73 62 58 54 46 67
59 52 44 41 40 36 30 24 16 10 8 5 4 5 9 14 16 16 23 40 35 29 30 34 47 54 60 78 88 85 81 74 76 77 72 73 69 68
49 45 46 44 38 29 18 12 9 5 5 7 12 14 15 16 21 41 45 47 41 32 30 39 49 58 70 78 79 84 73 98 84 95 100 97 99 93
51 50 46 38 22 13 10 7 4 8 11 12 15 23 27 35 44 48 49 49 51 43 37 46 59 69 83 80 71 83 84 81 90 87 92 86 81 82
53 44 37 19 15 9 5 6 11 12 15 20 23 25 36 44 50 52 54 54 50 54 74 74 75 90 92 74 68 69 74 83 82 83 85 95 81 75
46 36 19 13 8 5 7 12 13 14 19 21 22 25 32 43 63 67 65 57 60 73 70 72 84 100 97 93 85 94 99 97 92 83 83 98 100 90
37 21 14 8 6 8 12 14 15 15 17 22 23 27 46 63 74 81 76 70 75 72 66 65 79 91 99 100 95 78 90 90 95 94 88 89 97 100
24 17 10 8 7 12 15 18 17 15 16 19 27 30 31 35 45 54 62 62 56 56 61 58 66 86 92 100 100 100 89 82 88 100 100 100 100 100
18 16 11 8 8 15 19 23 22 22 18 17 23 32 34 34 34 33 33 32 31 33 37 49 61 91 88 96 99 100 100 91 93 99 97 85 88 100
20 16 11 8 12 18 23 28 29 30 32 32 22 27 33 34 32 29 25 22 18 19 21 31 62 96 95 96 100 99 100 100 94 90 84 80 81 89
17 15 12 8 14 21 29 33 36 38 37 38 38 28 30 35 33 29 25 21 20 19 18 24 69 98 99 97 100 96 100 100 100 100 99 83 87 86

GFSNE_500_rhum_075.txt.gz
RH
27 37 56 69 65 53 91 98 96 94 70 100 89 92 94 96 84 68 80 99 99 97 97 94 85 77 84 87 75 69 67 72 67 59 52 50 48 42
33 34 41 47 74 48 97 97 75 74 100 96 67 73 95 72 84 89 84 98 97 96 94 90 88 86 88 84 80 90 89 74 66 58 50 40 31 24
53 49 46 43 55 55 55 92 99 93 97 98 99 94 71 64 98 96 96 99 95 90 89 84 91 92 90 94 91 75 66 56 44 33 25 21 19 18
65 56 50 40 37 35 41 67 78 56 100 51 59 75 50 84 92 83 99 93 92 94 92 100 100 96 82 69 56 46 42 31 24 21 19 16 12 10
87 82 74 63 52 44 43 44 47 50 45 62 78 59 90 97 91 91 97 98 100 100 98 89 76 55 40 33 28 25 22 16 13 12 10 9 7 5
53 79 94 87 78 76 73 76 68 63 60 68 83 100 100 100 99 99 99 98 97 94 85 61 33 28 26 18 13 10 7 5 4 4 4 4 9 17
60 85 100 100 99 96 92 93 95 96 94 91 99 99 98 99 100 100 99 87 50 36 27 22 16 11 9 7 5 4 3 3 3 6 16 20 25 30
95 100 100 99 99 100 100 100 100 100 100 100 100 100 100 99 88 59 41 28 23 20 10 8 6 5 4 3 3 3 5 10 19 21 30 38 48 58
100 99 98 100 99 100 100 100 100 100 99 100 100 83 57 37 31 24 16 11 8 6 6 5 4 3 4 7 14 19 23 23 27 37 53 64 62 59
90 95 100 100 98 98 99 96 98 98 85 57 39 34 29 22 17 12 9 8 6 4 4 4 4 9 16 26 32 30 31 28 43 57 65 62 55 49
94 97 98 98 100 100 96 78 52 40 37 35 29 22 16 14 10 7 5 5 6 7 8 10 16 20 32 37 40 42 40 48 55 56 52 46 47 49
98 100 98 87 59 51 42 41 41 38 30 21 13 12 8 5 5 6 8 11 12 12 12 23 42 30 32 55 56 57 60 67 70 63 57 58 53 50
67 55 49 44 42 44 46 44 30 16 13 11 7 5 6 8 9 10 10 11 22 36 34 27 35 35 37 42 76 73 75 83 72 69 63 62 66 66
41 42 45 49 51 48 40 24 18 13 9 6 7 10 10 9 14 22 27 36 37 32 37 30 34 36 42 57 65 76 80 81 66 71 70 71 70 67
46 50 53 53 46 39 25 19 11 10 7 8 11 10 10 14 23 31 38 46 49 42 36 36 36 52 57 59 71 83 79 96 78 79 82 75 66 61
48 50 48 44 38 31 16 10 10 6 9 12 13 12 15 18 26 35 44 57 65 61 44 40 60 63 65 73 77 82 80 81 89 86 77 73 70 63
50 50 48 43 33 20 12 10 8 8 13 16 15 15 17 22 26 50 63 74 74 70 70 67 63 59 62 79 88 75 78 89 90 89 81 87 85 74
50 52 49 42 25 19 13 9 8 11 17 19 16 16 17 22 28 28 38 52 56 53 49 47 49 52 55 88 89 80 80 90 97 92 77 83 100 94
56 58 52 45 24 20 12 9 9 14 22 24 24 23 18 20 30 31 31 31 30 26 21 22 30 36 41 85 100 85 82 92 96 100 98 97 100 100
58 61 57 48 20 18 14 10 10 17 26 31 32 32 33 27 27 33 32 29 25 24 22 17 20 24 38 79 99 100 99 93 97 100 97 98 92 94
57 63 64 49 19 18 18 14 11 19 30 36 39 37 37 38 31 29 32 31 25 23 24 20 17 18 26 83 99 100 100 98 92 93 96 96 99 99
56 66 72 56 35 20 16 16 15 22 35 41 42 39 36 36 38 31 29 32 31 28 25 22 20 17 20 79 97 100 100 100 94 93 88 78 79 99
56 68 78 71 49 29 17 14 14 23 39 45 42 40 39 40 36 35 30 28 28 28 27 26 22 18 16 51 100 100 94 100 98 100 100 87 84 79

GFSNE_500_rhum_078.txt.gz
RH
30 30 30 32 42 64 64 51 49 52 57 96 97 98 98 91 94 99 100 46 93 71 56 82 74 96 98 94 86 77 78 78 77 75 76 66 59 55
32 42 63 60 49 56 60 60 56 51 59 98 88 99 97 98 99 92 98 74 54 50 40 75 87 94 88 78 85 89 83 80 79 76 73 74 69 67
40 63 85 96 99 100 94 80 78 56 67 98 100 100 100 95 98 87 62 61 57 53 81 91 97 93 96 95 85 88 86 89 84 79 71 61 51 41
47 51 64 100 100 96 90 84 71 64 60 65 75 86 67 62 52 54 59 65 85 86 96 91 87 94 98 96 100 95 87 67 50 34 25 22 20 19
38 39 45 64 97 99 90 85 100 71 68 61 60 59 63 68 70 65 72 88 95 88 89 98 95 99 93 74 49 29 23 19 16 13 9 8 7 6
78 56 54 74 67 67 91 92 93 99 95 83 84 85 80 76 80 90 100 98 100 98 95 85 60 38 30 22 15 11 9 7 6 6 6 4 4 3
52 57 64 58 91 65 80 93 100 95 99 99 97 99 98 99 100 100 100 96 79 67 53 30 20 16 11 10 10 9 8 7 6 4 4 3 6 15
70 68 94 92 98 97 100 100 100 96 96 99 100 100 100 98 87 57 39 31 22 21 19 12 13 9 9 6 5 5 4 4 4 5 11 18 25 28
54 75 96 96 97 90 86 97 99 100 100 100 99 84 50 38 33 24 19 14 12 11 9 6 5 5 6 7 7 7 8 11 16 18 24 29 43 51
40 68 86 92 95 97 100 100 100 93 65 46 42 38 27 17 12 9 7 6 5 5 5 7 8 9 11 13 14 20 21 20 26 34 42 51 60 61
78 88 90 93 96 92 76 57 45 45 45 39 23 16 12 11 8 6 6 8 9 8 8 8 10 14 37 37 29 22 22 25 38 45 55 55 59 59
67 64 57 52 49 45 45 49 48 41 30 20 15 12 12 8 7 10 9 9 12 20 17 34 38 32 48 45 32 30 31 37 45 47 60 63 56 52
38 39 39 40 44 47 48 45 38 30 16 14 12 12 6 8 12 11 10 16 24 29 32 38 48 43 38 38 44 41 47 59 71 74 71 61 56 54
35 35 37 38 37 40 41 40 34 25 14 13 13 8 8 13 13 12 12 19 28 31 37 40 45 42 42 48 59 63 67 78 72 77 75 72 65 53
34 33 35 38 40 44 44 40 30 22 18 11 10 9 12 16 16 14 14 16 34 44 42 43 41 45 52 53 58 60 62 87 81 76 74 76 74 57
37 38 38 40 43 46 46 43 28 24 16 13 9 9 14 20 21 17 15 19 25 35 52 56 49 48 44 46 50 51 60 73 80 83 85 89 88 78
39 38 41 44 46 50 50 47 31 21 18 17 15 11 17 25 27 26 20 23 29 30 31 29 28 21 20 30 34 40 71 81 81 86 89 96 98 93
36 38 40 44 45 47 53 48 20 20 21 23 15 15 23 30 34 34 33 26 32 31 28 23 18 18 18 19 22 36 80 81 88 92 91 92 100 84
40 42 44 43 42 50 60 56 31 20 21 19 16 18 28 35 36 36 38 36 31 34 31 27 21 17 16 18 19 44 73 85 92 99 90 88 94 93
46 46 46 43 42 51 65 66 48 28 18 18 17 18 30 40 39 36 35 36 35 32 34 34 26 21 15 16 16 24 65 96 86 98 98 94 88 95
50 50 47 45 49 57 71 74 63 56 45 31 17 18 37 45 42 40 41 40 35 33 29 30 28 24 18 16 17 18 68 92 92 93 95 91 100 100
56 55 49 47 55 60 73 80 78 74 60 30 21 20 46 51 47 45 45 43 38 35 32 28 27 26 24 21 19 17 59 100 100 100 99 89 86 97
60 54 46 49 64 65 72 75 75 78 68 52 38 25 44 55 54 53 51 51 45 38 33 31 26 22 24 21 19 16 49 94 100 100 100 98 96 100

GFSNE_500_rhum_081.txt.gz
RH
8 10 17 36 40 51 68 74 86 87 73 63 71 85 86 82 82 99 98 97 99 98 97 98 97 90 76 61 36 42 66 78 89 87 76 68 69 68
8 10 15 19 27 37 56 78 96 100 97 92 98 82 99 99 100 93 94 97 97 94 89 78 78 76 53 43 54 85 81 74 80 86 84 73 74 74
13 11 11 18 40 57 62 56 60 87 98 91 97 91 96 91 91 85 84 76 61 56 54 64 74 58 61 94 93 96 83 84 84 90 91 84 72 67
6 11 18 20 49 60 55 52 60 78 100 100 100 98 81 100 90 86 72 81 90 90 93 91 93 99 100 97 93 87 95 93 91 87 84 79 70 60
9 16 16 26 31 56 58 50 54 72 72 99 83 82 88 100 100 100 100 100 100 100 100 100 100 98 95 90 83 81 69 60 56 47 43 34 26 23
12 17 20 33 38 42 47 56 79 97 92 94 97 100 96 95 98 95 97 100 100 94 79 52 39 30 26 30 27 24 25 25 22 20 20 15 12 12
12 17 25 31 50 56 69 82 93 95 97 99 100 100 100 100 100 98 95 75 52 47 34 31 25 16 16 15 14 13 12 10 9 8 6 5 5 5
12 14 24 29 34 63 64 74 92 92 86 93 98 99 98 84 72 62 47 30 16 17 13 13 8 7 6 6 6 5 5 6 6 6 7 7 8 12
33 31 32 44 57 60 68 79 81 86 92 94 83 64 52 44 35 26 15 15 16 15 7 6 7 8 8 8 8 8 7 8 8 11 17 17 21 26
45 47 52 60 64 63 61 64 61 52 46 46 46 41 33 23 18 14 16 11 8 6 8 10 9 13 16 12 12 16 19 20 21 19 19 22 31 39
42 41 40 39 36 35 35 36 39 40 38 38 35 31 26 15 15 15 10 8 10 12 12 12 19 33 40 34 30 26 25 23 21 24 27 33 38 44
37 32 30 29 30 32 33 34 35 36 37 37 34 26 17 12 13 12 9 9 14 14 13 19 30 32 59 57 40 32 29 24 28 33 38 46 60 68
35 34 33 34 34 33 34 34 36 41 41 39 32 26 20 14 16 14 10 13 18 17 15 16 49 56 57 66 66 48 39 42 41 44 54 69 71 66
39 38 36 34 34 33 33 37 41 43 41 42 36 27 19 19 22 16 12 17 21 22 17 15 32 55 60 57 56 54 54 54 53 58 64 76 74 67
38 36 34 32 31 32 33 37 38 38 42 46 31 21 21 26 25 23 16 21 26 26 22 16 24 38 39 37 29 28 34 44 48 49 77 84 80 75
35 32 31 31 33 34 36 37 34 33 44 50 26 20 23 26 32 22 17 22 31 31 28 21 23 24 21 19 17 18 24 27 29 61 81 86 87 81
36 34 35 36 37 37 40 39 34 36 45 60 47 31 24 31 28 21 19 28 35 36 36 30 27 26 23 20 21 18 18 18 44 73 83 94 94 80
37 36 36 37 40 41 41 37 34 42 52 66 63 43 34 40 28 23 20 32 37 37 35 35 30 30 32 32 24 22 19 18 26 62 85 91 100 83
43 41 40 44 46 48 46 37 38 48 60 72 70 65 62 45 31 25 23 34 41 39 40 37 34 26 28 31 35 23 19 17 21 56 91 97 96 96
53 46 45 49 51 50 42 38 43 56 61 71 76 76 76 59 44 34 27 41 46 42 45 41 35 31 25 24 25 30 22 15 18 37 92 100 94 97
61 53 54 54 54 50 45 47 54 64 66 72 73 70 60 42 55 42 27 51 53 49 49 51 41 33 27 22 20 21 20 15 16 28 79 94 100 100
63 57 61 60 54 48 49 59 63 66 72 74 73 61 23 27 41 62 33 57 64 65 64 64 54 38 32 21 18 18 17 17 18 19 74 88 89 99
65 64 65 61 54 45 45 62 65 64 67 72 72 29 18 22 22 44 41 58 69 73 71 74 73 58 39 26 17 16 16 15 15 18 80 87 89 89

GFSNE_500_rhum_084.txt.gz
RH
10 7 7 9 11 10 7 13 25 34 48 67 63 65 65 81 93 87 92 100 98 94 99 97 97 98 96 89 91 72 63 91 59 43 36 31 44 70
6 8 12 13 9 6 8 15 20 15 40 49 50 51 58 89 96 99 98 100 99 99 93 87 72 64 60 60 64 66 65 64 57 51 49 71 84 82
11 14 16 14 7 8 8 12 19 24 38 36 34 44 55 86 83 100 100 99 93 79 84 81 78 80 84 81 79 80 72 81 88 92 92 89 91 84
15 16 17 12 8 8 12 18 21 28 35 40 48 62 70 71 97 98 93 92 80 86 87 98 100 96 91 92 91 87 90 94 95 92 92 90 90 90
16 18 17 14 9 10 18 24 34 36 47 56 68 76 85 80 89 96 99 98 98 99 99 98 90 80 59 50 40 39 36 34 31 35 40 46 52 54
18 21 20 18 9 17 20 27 35 37 44 51 58 70 82 84 80 94 91 80 84 70 52 46 28 17 15 16 16 15 14 12 11 10 10 11 12 13
22 26 25 26 22 15 16 26 37 42 48 50 59 70 70 75 81 83 69 54 39 26 21 18 19 20 18 15 12 10 7 5 5 6 6 6 6 6
29 33 36 37 37 40 42 49 53 51 51 55 56 52 51 42 42 41 39 29 25 22 20 22 14 9 5 5 6 8 8 8 8 8 8 8 8 8
36 33 33 36 38 40 38 32 28 26 26 27 30 32 33 35 34 33 29 25 20 18 15 9 8 7 8 10 12 11 13 16 15 19 21 16 13 17
34 35 36 37 34 28 26 25 24 23 25 28 30 33 35 34 33 31 21 15 12 18 15 11 11 13 14 14 14 16 23 29 30 28 26 23 25 25
37 37 34 31 30 28 29 27 27 27 27 30 32 34 36 37 33 28 24 17 18 22 20 16 14 19 17 15 18 25 30 32 33 32 31 30 29 29
39 36 34 33 30 28 27 27 28 26 26 28 32 35 35 37 38 30 22 23 31 30 16 13 16 22 19 20 28 39 39 35 32 32 34 36 41 44
40 37 36 32 30 30 29 28 28 28 29 30 33 32 33 42 38 25 22 28 36 26 15 14 25 28 22 26 35 44 46 44 42 41 44 47 45 51
38 37 33 32 31 29 27 27 28 29 32 36 34 31 33 52 38 26 26 30 36 29 19 18 25 30 28 28 30 28 25 20 19 20 33 42 44 47
41 36 36 36 32 29 28 26 28 34 37 37 33 32 39 56 55 44 28 31 37 30 21 21 23 30 30 27 29 26 26 28 18 19 23 25 31 65
40 40 40 37 35 34 30 28 32 39 43 37 33 36 50 64 68 57 52 53 45 34 26 22 23 31 32 32 27 29 24 24 23 20 19 24 43 69
45 45 45 44 44 41 35 32 38 41 39 36 35 41 56 67 73 73 72 72 58 42 37 24 28 36 36 34 32 27 28 24 19 21 20 20 32 78
52 52 53 54 54 48 40 39 42 42 39 38 48 52 60 64 67 63 59 63 55 52 48 28 40 44 41 41 33 27 25 25 22 20 19 19 29 88
58 61 61 63 61 52 45 49 47 46 41 31 55 62 62 64 66 66 68 49 48 60 66 37 48 49 45 46 46 34 25 24 23 19 17 17 30 78
63 64 66 69 64 52 50 55 54 50 38 39 57 61 61 64 69 71 61 35 34 45 67 52 58 60 55 50 50 48 32 21 19 17 15 16 23 75
66 69 71 72 62 54 61 61 58 49 41 50 58 58 58 63 67 52 27 24 26 34 58 56 68 73 69 66 57 47 40 29 19 16 14 13 17 64
71 76 77 74 61 63 68 66 62 57 47 58 62 59 60 63 46 22 20 24 30 31 35 46 70 77 79 77 71 59 49 34 21 17 13 11 14 37
74 76 80 74 65 69 68 68 70 64 58 65 65 62 64 50 24 19 18 20 27 34 29 34 69 76 81 83 77 70 54 33 21 18 16 11 11 14

GFSNE_500_rhum_087.txt.gz
RH
12 16 12 11 7 10 13 15 14 9 7 7 11 12 14 20 27 32 39 36 54 76 80 100 99 94 80 98 93 78 70 62 60 60 79 91 63 96
16 11 10 7 12 12 15 17 13 9 6 9 13 13 19 23 33 40 42 45 46 70 95 92 92 87 77 74 77 86 82 83 81 78 79 79 91 73
11 11 7 9 11 14 16 16 14 9 10 12 17 15 19 28 32 38 39 35 62 84 80 80 91 99 87 83 89 96 99 95 86 81 80 81 87 91
10 7 7 11 13 17 18 19 15 11 18 17 20 23 23 30 39 42 50 53 63 69 70 73 82 83 75 69 65 56 51 53 48 49 48 59 58 69
8 8 10 15 16 19 22 24 23 14 13 18 29 34 42 45 46 48 52 64 65 70 73 67 56 38 28 21 20 19 20 20 19 18 18 17 17 17
11 12 16 18 21 22 27 31 31 32 32 39 43 43 39 31 27 28 29 25 29 36 40 36 24 24 21 22 21 15 10 7 6 5 5 6 6 7
15 18 21 22 23 25 28 26 32 34 38 33 24 22 18 18 18 20 22 25 29 34 30 22 20 19 21 21 19 12 9 6 6 8 10 10 10 9
19 23 24 25 27 28 26 27 29 31 26 22 20 19 19 20 20 23 27 31 34 30 28 26 21 16 19 19 9 7 7 9 14 13 13 21 22 18
26 28 28 30 32 28 26 28 27 25 22 20 20 20 21 22 23 27 31 34 35 32 30 25 17 23 27 13 9 8 10 15 16 17 24 29 31 30
30 32 34 32 31 28 28 27 24 23 24 22 22 23 24 27 29 31 32 31 35 37 25 20 27 35 24 11 10 10 15 18 16 30 39 40 36 34
38 36 32 33 31 29 30 26 24 25 24 24 24 24 28 30 32 32 29 31 41 33 21 24 37 35 20 13 11 11 20 21 18 42 47 46 45 42
38 35 37 35 32 32 27 26 26 25 25 24 24 26 30 33 33 32 32 37 48 30 28 33 42 42 24 17 15 15 22 23 20 39 40 38 40 41
38 40 39 34 34 30 29 30 30 29 28 25 24 27 33 33 31 30 33 45 56 55 49 35 41 48 33 24 25 25 30 28 22 26 21 19 18 21
41 42 41 35 32 33 36 36 36 36 34 30 28 29 33 33 34 33 41 56 61 62 62 63 63 59 41 36 27 38 36 35 29 26 23 24 21 18
44 44 39 37 36 40 41 43 44 45 41 35 31 33 38 39 30 41 52 60 67 66 65 58 61 62 50 44 26 38 38 39 34 29 27 26 24 19
47 45 43 41 43 46 49 49 50 51 46 36 34 41 43 35 29 47 56 59 64 60 58 60 60 51 44 45 32 37 42 36 38 32 31 31 26 21
52 50 48 48 51 53 54 54 53 53 44 39 45 49 41 36 33 54 57 58 63 68 69 56 44 30 24 51 46 48 47 41 37 36 29 30 27 21
55 52 51 52 53 52 53 54 56 54 44 48 50 44 48 41 45 54 54 58 64 65 61 44 24 23 33 56 51 56 53 45 41 34 26 25 28 23
63 60 59 56 55 55 58 60 63 54 50 55 54 54 54 45 56 58 58 60 63 49 26 20 20 22 30 53 69 83 68 59 48 39 30 24 23 23
71 70 65 62 62 62 66 69 66 54 54 55 55 63 54 52 62 62 59 60 53 35 26 20 18 20 27 31 52 100 84 77 61 48 34 25 21 20
78 78 75 69 67 68 71 74 65 59 60 61 63 67 67 58 66 61 60 67 65 53 29 19 19 23 30 31 38 83 100 92 75 54 40 27 20 18
83 80 81 77 76 75 75 74 69 66 66 70 75 53 61 69 65 64 68 74 75 63 32 17 19 23 34 33 31 66 96 100 90 74 47 21 16 15
100 92 88 85 85 85 84 78 71 64 71 74 72 59 59 59 52 57 68 73 73 69 35 17 19 23 38 36 31 56 87 90 85 86 82 43 27 16

GFSNE_500_rhum_090.txt.gz
RH
13 8 8 11 16 13 12 9 12 10 10 13 15 13 8 11 17 16 15 16 21 28 28 35 64 72 72 66 80 79 81 74 99 98 78 72 74 84
10 10 10 15 13 12 9 11 13 11 11 14 17 16 13 14 16 19 19 27 32 33 39 45 57 59 64 70 77 78 76 76 79 91 97 98 98 95
11 10 14 14 11 8 8 12 13 14 14 16 19 22 18 16 24 26 29 35 37 42 46 56 63 67 68 72 73 68 66 58 55 57 64 74 79 83
11 13 14 12 9 8 9 14 14 16 16 18 22 27 29 32 36 35 25 20 18 20 22 24 27 26 29 34 34 29 25 23 23 23 21 20 20 20
15 14 13 11 10 11 15 16 17 18 20 21 23 29 33 32 23 17 16 17 16 17 19 22 24 24 28 27 25 22 20 20 21 21 18 13 10 8
14 15 13 11 15 18 18 20 22 23 24 23 26 28 26 21 17 17 17 17 17 20 22 23 26 26 27 25 22 15 14 18 17 8 8 7 6 6
16 14 13 18 21 21 24 26 27 26 25 25 25 22 20 18 18 18 19 21 22 24 24 28 29 29 30 28 21 18 21 27 12 9 7 8 8 11
15 16 21 24 25 27 30 30 27 27 26 25 23 20 19 20 20 20 20 21 20 26 29 29 30 31 34 30 19 23 34 24 11 11 10 10 16 17
22 25 28 30 31 34 32 29 28 27 27 24 20 22 21 21 22 21 21 22 26 30 30 29 34 38 32 23 25 34 41 25 13 13 11 15 20 18
27 33 35 37 39 35 31 30 29 28 24 22 22 24 26 26 24 23 23 23 27 29 28 27 37 40 26 27 38 44 44 26 13 12 11 20 21 32
38 41 42 43 39 35 34 31 27 26 25 27 29 31 32 30 29 26 24 26 31 31 27 35 50 50 51 50 46 52 51 37 22 12 13 23 23 29
42 47 47 42 38 39 37 30 29 28 31 34 36 38 38 36 32 27 29 33 33 29 31 49 56 65 68 63 62 54 48 43 32 16 14 23 26 24
54 50 45 42 43 41 35 32 30 33 37 41 43 44 43 38 33 32 35 34 32 27 38 55 60 61 67 68 69 59 53 42 27 18 17 25 30 26
53 49 47 45 44 42 40 35 36 40 46 47 46 46 45 39 36 38 40 37 31 28 44 51 56 58 63 66 74 80 52 32 35 35 34 37 35 31
54 52 49 47 46 45 43 43 46 49 49 47 48 48 47 42 39 40 39 31 26 32 48 48 48 55 55 54 39 30 21 45 49 46 48 45 39 34
57 55 55 54 52 51 49 50 50 48 48 52 54 55 50 44 44 45 31 22 33 39 43 49 50 52 46 27 23 21 21 27 42 49 55 52 43 37
71 70 76 95 66 51 51 50 50 51 54 58 59 59 51 47 49 41 23 26 40 52 57 49 46 49 44 41 22 19 21 25 31 48 60 61 56 39
85 81 89 82 66 63 61 60 58 57 57 59 61 60 52 53 50 32 18 27 43 49 56 54 57 61 62 47 20 16 19 22 31 46 60 59 62 42
77 76 75 72 72 74 73 69 66 65 65 65 64 58 52 56 37 26 22 27 36 41 50 55 61 62 68 58 25 21 18 28 32 41 65 64 69 65
78 79 80 80 78 77 78 76 75 74 73 70 65 57 53 50 36 25 23 28 34 40 50 60 52 53 62 62 32 29 23 27 30 36 68 78 76 77
92 90 87 87 93 90 85 85 85 81 77 74 70 64 68 72 38 22 25 28 30 33 42 72 75 61 61 66 45 20 39 32 31 33 58 74 83 87
100 100 99 100 99 97 94 92 91 82 79 79 82 81 83 60 29 22 24 25 29 29 30 38 70 74 69 67 54 21 30 48 38 32 47 68 72 76
100 100 100 100 100 100 94 92 90 83 78 82 81 64 45 31 20 20 22 24 23 23 27 43 69 82 88 73 43 23 25 45 45 41 59 73 75 73

GFSNE_500_rhum_093.txt.gz
RH
41 24 19 33 14 10 10 12 16 12 10 10 13 13 14 15 18 21 21 17 25 29 32 31 28 30 36 47 51 56 58 58 63 72 72 68 74 96
28 21 25 15 11 11 13 16 12 11 7 10 12 14 16 18 21 25 26 31 34 34 22 15 15 17 19 20 23 31 35 47 52 55 59 65 72 75
24 21 16 12 12 13 17 13 13 9 8 12 15 16 19 20 22 25 31 34 23 16 15 14 15 16 16 18 21 23 26 27 27 26 24 22 21 20
25 17 13 13 14 17 15 14 9 10 14 17 18 20 21 20 22 25 27 22 17 16 15 17 17 18 18 20 22 26 28 26 24 23 22 21 22 23
18 14 15 14 16 16 14 13 11 16 20 21 23 22 21 21 21 22 20 17 18 18 18 18 17 17 19 24 27 28 29 27 18 15 20 21 25 28
16 15 16 18 16 15 16 14 18 22 24 27 24 23 22 21 22 19 19 19 18 19 19 18 18 18 21 24 27 29 30 31 22 14 18 27 33 20
17 18 21 27 19 16 18 22 26 27 30 26 26 24 23 21 19 21 19 21 23 22 20 20 19 22 25 26 26 30 35 30 20 21 27 37 36 28
36 45 19 22 18 22 27 30 31 33 29 28 27 24 23 19 22 23 26 26 26 24 22 22 22 25 28 25 28 37 30 18 21 27 40 44 33 16
58 20 22 19 26 32 35 36 37 33 31 31 27 25 22 26 28 30 30 29 28 26 24 25 24 24 26 27 37 49 30 16 24 36 39 51 46 30
26 22 25 31 38 40 42 42 36 35 35 31 29 25 29 32 34 33 32 31 29 28 28 28 30 28 25 33 47 60 64 63 60 57 62 57 49 40
28 32 37 44 43 44 46 41 38 39 37 32 28 31 34 37 38 37 35 33 32 32 32 29 20 18 20 38 47 50 54 56 55 53 53 56 48 32
38 46 48 49 51 50 44 42 42 42 38 35 34 37 39 41 40 37 37 37 36 36 31 20 13 16 33 48 49 47 48 46 45 48 36 23 20 24
55 55 55 58 53 48 46 43 42 44 41 39 40 43 42 42 40 42 44 42 40 32 18 11 11 16 32 49 51 47 43 38 36 32 24 14 15 19
59 63 64 56 51 49 47 46 46 45 44 45 46 44 45 46 45 47 47 44 38 24 11 11 12 20 36 51 60 67 55 39 42 40 17 15 16 20
70 69 59 56 54 54 55 55 53 49 48 47 48 49 48 48 51 52 49 45 30 15 11 12 14 21 28 36 52 69 64 55 54 31 17 17 20 25
71 62 61 61 62 66 82 90 62 55 54 55 56 54 54 55 54 54 51 47 25 14 13 13 15 20 27 29 36 56 68 69 59 38 19 21 27 32
73 75 79 81 80 78 88 78 70 66 64 64 62 62 62 63 59 57 54 51 36 19 16 15 15 19 24 33 39 46 62 68 62 48 23 20 31 37
81 85 81 83 84 79 74 74 76 75 71 69 67 66 66 66 64 65 63 63 56 25 19 18 19 18 21 32 38 53 66 51 54 57 33 17 36 38
94 88 83 77 76 78 80 79 78 78 75 75 74 73 72 70 71 74 71 59 42 24 20 19 23 22 23 24 41 61 74 84 74 68 46 18 27 39
92 92 93 88 88 90 88 91 84 81 84 85 81 79 73 75 73 69 46 26 26 25 24 24 23 21 21 20 23 89 85 81 87 86 54 20 23 33
92 99 100 99 98 99 99 94 87 88 90 90 87 82 78 75 67 63 34 29 28 24 25 24 22 22 28 31 32 45 71 77 77 76 51 25 30 36
100 100 100 100 98 100 98 92 90 91 96 100 93 87 86 80 65 37 28 30 26 25 24 20 22 25 20 27 36 30 30 47 50 42 37 30 38 42
100 100 100 100 99 98 99 98 98 96 100 100 97 96 88 79 40 22 24 25 26 25 19 21 21 20 54 49 26 28 38 52 58 59 60 47 44 45

GFSNE_500_rhum_096.txt.gz
RH
62 63 63 61 48 35 24 28 18 14 13 15 15 15 11 12 15 17 18 18 19 21 27 31 20 14 13 12 12 13 14 14 14 14 14 16 21 40
78 66 62 64 43 26 21 18 13 17 31 16 14 10 10 15 19 20 21 20 21 22 25 21 15 14 13 14 15 15 15 15 16 17 17 18 19 19
79 76 68 58 35 26 29 31 13 21 17 15 13 11 15 21 22 24 20 20 20 20 19 16 16 14 16 17 16 15 16 18 19 21 24 25 25 24
82 84 72 67 49 22 17 15 16 18 17 18 13 15 21 23 25 22 22 20 19 19 17 18 17 19 19 18 18 18 18 21 24 26 28 29 26 25
75 73 71 68 27 17 17 17 18 18 18 15 25 22 25 26 24 24 22 20 19 18 18 20 22 22 21 20 20 20 22 24 24 26 30 30 27 24
78 75 72 57 17 18 18 20 20 21 17 30 25 28 29 26 26 25 23 19 20 21 24 26 25 24 22 22 21 19 20 24 23 25 32 36 31 23
36 32 26 28 21 26 27 59 31 21 28 28 31 33 30 28 28 25 21 21 25 28 28 28 25 26 26 25 20 16 17 19 22 30 41 29 19 20
28 28 32 28 33 77 77 27 22 28 32 35 36 35 30 31 27 24 25 29 32 29 28 32 29 28 28 21 10 9 10 13 21 35 49 28 14 20
80 69 75 82 88 47 28 26 36 38 40 41 39 35 36 32 30 28 32 35 33 30 31 32 30 32 30 11 7 7 9 13 26 40 52 62 63 61
96 96 97 61 37 27 26 37 44 46 45 42 40 40 38 34 31 34 38 39 33 32 34 34 34 33 17 8 8 8 9 15 29 43 49 55 57 54
96 73 37 34 30 37 45 50 52 50 47 44 42 42 38 34 37 41 42 37 36 38 38 37 36 25 9 9 9 10 11 14 27 42 43 48 51 48
36 41 37 42 47 53 58 60 54 49 48 44 42 40 38 40 44 47 42 41 41 44 43 41 37 16 9 10 10 11 13 15 20 33 42 44 42 38
52 68 56 58 62 65 64 58 53 51 46 44 41 41 44 49 49 47 46 44 43 45 47 45 40 14 12 13 12 13 15 16 20 25 30 41 53 57
67 62 66 70 69 67 61 57 55 50 48 48 50 48 50 49 52 51 48 48 46 46 48 50 48 26 15 15 15 18 17 18 21 22 25 33 51 58
74 75 72 73 72 64 60 57 54 60 80 82 58 56 56 58 58 56 54 51 50 51 56 56 49 36 17 18 18 23 24 32 31 28 36 43 49 52
81 79 80 75 66 62 61 65 72 76 82 72 67 64 64 62 61 59 56 57 58 57 57 51 34 25 21 22 21 26 27 32 34 31 33 58 70 63
86 86 78 69 69 74 79 80 80 83 72 69 71 69 66 66 66 64 62 62 64 59 48 28 20 23 27 27 25 26 28 27 23 24 31 45 93 92
91 85 75 74 82 78 78 79 74 72 74 74 74 76 73 70 68 69 70 70 68 60 47 28 23 26 26 25 25 24 22 21 24 27 31 39 97 100
96 86 78 85 88 85 82 79 81 83 82 86 82 82 81 77 76 77 78 74 74 54 26 22 24 27 31 26 20 25 21 23 36 46 44 40 30 98
96 91 86 93 96 98 97 95 98 98 95 92 85 85 85 86 85 89 87 81 62 24 23 28 42 47 37 20 19 23 51 54 28 16 22 29 36 44
100 99 82 92 94 100 100 100 100 94 94 95 91 92 94 93 89 98 93 86 30 21 28 41 46 35 20 19 23 67 63 24 14 14 27 39 48 57
100 94 82 88 94 100 100 98 94 88 89 95 100 97 98 99 98 99 91 63 23 19 30 45 33 19 19 19 55 69 73 34 16 19 26 33 47 63
90 82 78 80 93 100 100 98 97 97 99 100 100 97 100 100 100 96 70 32 22 19 31 37 26 18 19 26 69 76 78 71 21 28 36 30 37 47

GFSNE_500_rhum_099.txt.gz
RH
95 93 84 88 86 83 74 62 64 43 27 24 35 16 38 28 16 13 10 11 18 21 22 20 19 18 18 13 14 14 16 16 15 14 12 12 12 12
95 97 96 89 85 82 83 77 70 58 45 36 28 15 21 18 16 12 14 19 22 24 21 20 18 17 16 15 15 18 18 17 15 15 13 12 13 13
91 87 87 89 91 87 82 83 75 69 32 18 16 20 19 18 15 16 22 23 25 22 21 19 18 16 16 17 21 21 19 18 18 16 12 11 14 15
91 88 80 81 78 78 78 78 76 68 26 16 18 20 19 17 19 26 24 27 24 23 21 18 17 18 19 23 24 23 20 20 18 12 10 10 15 18
78 80 76 71 67 69 72 76 72 45 20 20 22 39 23 26 40 30 30 28 25 24 20 19 20 23 26 26 25 24 23 20 15 8 7 7 9 14
66 65 65 65 71 70 61 53 36 31 34 24 55 47 25 44 35 35 34 28 28 24 21 24 27 28 28 26 25 26 25 22 10 6 6 6 7 12
49 53 65 82 86 42 25 24 41 30 44 82 50 28 51 38 38 39 33 31 29 23 25 30 31 29 29 29 30 28 25 14 8 6 7 7 8 13
49 61 79 81 76 67 33 32 39 82 89 36 30 52 43 43 43 38 36 33 28 27 32 34 32 31 32 33 33 31 19 8 7 8 8 8 10 14
46 56 77 86 87 96 70 80 96 87 41 43 55 48 49 46 41 41 38 33 29 35 39 36 33 35 38 38 36 30 12 9 9 9 10 11 11 14
74 75 72 76 83 88 91 96 56 35 38 50 51 54 50 44 43 41 37 33 34 40 39 38 40 41 42 42 38 28 11 11 11 10 11 12 14 15
60 56 51 50 57 93 91 50 34 46 54 57 59 53 47 45 42 39 36 37 42 41 43 43 43 43 44 45 44 29 15 13 13 13 12 13 15 19
52 47 48 48 79 57 47 46 57 57 62 63 55 52 47 43 41 39 42 44 44 47 45 46 43 43 45 48 42 25 16 14 16 19 17 16 16 21
72 37 39 49 49 51 66 67 65 69 65 58 55 49 48 46 47 47 46 50 50 52 50 46 44 45 46 47 32 20 18 19 21 23 23 22 23 24
52 47 61 69 93 89 76 78 75 68 60 58 54 56 74 77 58 53 56 55 55 55 54 52 52 52 48 39 27 22 22 25 26 26 24 25 25 24
90 71 94 96 85 83 92 83 71 63 61 60 61 76 80 69 64 59 59 59 60 59 58 58 59 59 39 21 22 25 23 26 27 30 29 23 22 24
83 84 92 92 99 99 91 74 66 64 66 71 75 81 80 67 65 64 64 64 63 62 63 61 63 54 21 19 21 26 38 42 37 24 19 21 23 26
99 98 99 100 100 96 79 71 76 79 81 82 84 78 71 71 71 71 72 74 72 68 67 69 67 30 17 16 24 36 31 18 17 18 26 58 66 48
99 100 100 100 100 86 80 84 84 80 79 78 75 77 80 82 82 81 80 80 77 73 74 75 59 17 16 19 29 27 17 15 16 33 62 64 58 23
100 100 100 100 96 90 88 92 93 91 86 83 89 97 99 98 92 86 86 86 85 84 79 74 36 17 16 19 31 27 17 15 20 66 72 72 54 19
97 100 100 100 100 96 91 89 96 92 93 96 98 100 99 98 96 94 88 87 95 94 82 61 21 18 17 22 31 26 16 14 33 72 71 73 54 20
100 100 100 100 100 100 94 89 96 92 93 95 98 100 98 98 97 97 94 94 98 96 80 36 17 19 18 23 32 23 16 15 38 74 75 77 72 26
100 100 100 100 100 100 100 92 90 90 98 96 95 97 100 100 100 96 97 98 98 95 68 21 20 21 20 22 29 19 16 16 34 74 72 76 79 40
98 99 100 100 100 100 100 94 86 85 95 100 100 100 100 100 99 100 100 98 100 93 44 20 23 22 22 24 25 16 15 16 27 76 80 80 84 83

GFSNE_500_rhum_102.txt.gz
RH
98 97 94 95 91 86 90 88 82 73 74 80 83 77 66 44 21 17 30 21 18 12 16 24 22 22 20 19 16 15 14 14 18 17 14 14 12 12
96 95 86 82 88 92 91 87 83 76 72 78 77 81 68 34 18 18 20 20 16 18 25 25 24 22 20 18 16 16 16 21 20 18 15 14 14 10
89 90 92 92 89 93 92 80 74 71 71 73 71 71 71 50 18 21 22 23 19 28 29 27 25 23 20 17 17 19 23 23 19 17 16 15 14 11
93 93 94 92 81 75 77 76 78 74 70 74 70 72 68 50 25 36 44 21 42 36 32 30 26 24 19 19 23 24 22 20 20 20 21 18 15 9
60 64 59 57 60 61 64 70 75 70 73 68 56 55 32 65 30 85 29 51 45 37 34 31 27 23 22 27 26 26 25 24 24 24 24 17 10 8
31 33 36 41 45 50 64 70 76 78 78 49 28 32 46 43 78 57 52 50 40 39 35 31 27 24 29 31 28 27 27 28 29 30 24 14 10 8
11 22 38 40 41 43 59 64 78 75 50 40 34 36 78 90 31 59 58 45 44 38 36 33 28 32 36 33 31 33 34 35 35 29 20 11 10 9
13 10 16 33 37 39 59 75 88 98 85 60 81 90 93 36 57 61 50 47 42 39 37 33 32 38 37 36 38 38 38 36 33 28 20 12 11 10
19 16 12 35 42 45 63 76 94 97 92 96 98 88 44 82 63 57 51 44 44 39 36 34 38 40 41 40 39 36 37 36 32 26 16 13 12 13
28 25 24 57 49 52 76 59 79 77 72 94 90 42 78 62 62 56 48 44 41 38 37 41 42 44 44 43 38 37 36 35 31 21 14 16 17 18
40 36 59 63 50 69 55 56 55 61 84 87 45 83 73 69 60 51 45 42 39 39 44 44 48 48 48 44 41 40 41 38 30 19 17 19 22 25
34 66 60 51 61 74 50 49 56 86 57 66 95 82 75 63 55 48 46 44 46 45 47 52 53 52 51 48 47 48 44 30 16 14 16 19 27 35
67 51 39 43 70 61 44 53 58 65 82 98 86 83 66 59 52 52 65 70 56 54 55 56 54 53 54 54 53 52 32 12 14 15 20 20 22 23
40 37 36 46 68 73 93 67 82 94 98 98 93 70 62 58 58 76 76 66 61 59 59 58 59 58 56 57 58 45 13 13 14 17 23 17 15 15
48 48 53 58 70 73 78 97 100 99 100 99 76 67 64 62 74 79 78 64 65 66 67 69 68 63 65 70 67 28 14 15 16 23 26 18 15 17
45 52 59 72 96 98 99 99 100 100 99 84 70 67 72 77 80 82 69 70 70 72 76 75 75 74 75 73 59 16 15 16 17 22 26 15 16 34
72 91 94 100 97 97 99 100 100 99 93 76 78 86 88 88 85 73 76 77 82 82 77 77 81 87 84 75 38 16 17 18 18 24 20 14 19 50
96 100 99 100 100 100 100 100 100 98 89 90 93 90 87 80 77 83 90 91 93 89 85 83 90 92 87 66 21 18 19 20 19 20 15 13 24 60
100 97 97 98 100 100 100 100 99 98 98 100 100 96 94 89 91 95 92 91 94 98 97 97 97 96 87 59 20 19 21 23 20 18 13 13 20 65
100 100 100 98 100 100 100 100 100 100 99 100 100 100 99 98 96 94 97 98 99 98 98 94 92 96 85 42 20 22 24 26 21 15 13 14 18 54
100 100 100 100 100 100 100 100 100 100 100 100 100 99 97 100 96 93 98 99 100 100 99 92 88 95 82 28 21 26 29 29 24 15 13 13 16 48
100 100 100 100 100 100 100 99 100 100 100 100 100 99 98 99 99 100 100 98 95 97 99 96 93 96 72 23 24 29 31 34 29 17 14 13 13 22
100 100 100 100 100 100 99 99 100 100 100 100 100 100 100 98 97 100 100 100 96 100 100 100 98 98 72 22 28 31 31 37 35 21 15 14 13 13

GFSNE_500_rhum_105.txt.gz
RH
98 96 96 97 97 97 96 95 93 90 88 89 89 87 72 70 78 75 76 70 34 19 22 21 17 25 28 28 23 21 18 14 14 16 20 20 17 14
98 96 95 96 96 95 93 95 94 92 86 77 70 67 73 78 74 74 73 60 24 24 25 26 22 37 42 29 25 22 17 16 19 21 19 18 17 17
98 97 96 94 95 94 93 85 79 81 75 79 76 70 69 70 72 70 58 33 36 40 52 30 65 63 34 29 26 20 19 23 22 22 21 20 20 21
96 95 94 91 91 93 85 87 82 82 72 66 75 73 77 78 69 41 29 44 40 90 48 82 49 39 33 29 25 21 26 27 24 24 24 25 25 25
60 62 71 38 41 43 44 48 50 56 73 75 79 76 74 70 40 29 42 45 87 74 58 73 44 38 34 29 25 29 31 27 27 30 31 30 31 28
15 13 12 12 14 18 29 35 39 43 46 70 76 80 68 58 47 40 57 86 49 67 79 49 43 38 34 29 31 34 31 32 35 34 34 30 27 25
14 12 11 12 13 11 10 13 34 41 42 62 82 85 92 71 65 60 93 74 56 74 54 47 42 38 33 32 37 35 37 38 35 32 30 29 27 26
14 12 13 12 14 16 15 12 23 44 48 60 69 88 97 96 95 100 71 82 95 64 53 47 42 37 34 37 40 41 40 38 34 33 32 31 30 27
24 24 30 30 26 22 21 20 18 55 52 55 67 84 95 77 84 97 74 96 79 77 51 46 40 35 38 43 44 43 42 38 36 34 35 34 24 14
33 33 33 39 35 27 27 32 29 62 52 64 66 69 72 98 90 73 99 86 91 58 48 42 39 41 45 47 47 48 47 43 40 40 38 15 11 10
32 31 41 48 37 28 40 37 68 58 67 61 54 68 94 94 74 98 99 95 62 51 45 42 46 46 50 49 50 52 50 47 45 44 17 12 12 13
40 50 54 44 32 31 54 63 58 66 77 50 56 95 76 85 100 100 97 66 54 50 55 58 53 55 54 55 54 55 52 51 52 42 13 13 12 15
59 62 58 64 67 68 49 43 52 67 62 53 65 96 90 100 98 98 71 58 58 77 70 61 60 60 60 61 63 62 59 61 58 27 14 14 16 16
66 70 63 56 61 46 44 52 66 82 82 93 88 99 100 100 99 78 64 61 78 80 73 65 65 66 67 70 69 68 69 66 50 15 16 18 18 15
76 67 56 56 52 57 60 67 70 77 83 97 100 100 100 100 85 72 64 69 85 86 71 72 72 71 75 76 76 75 77 68 32 17 18 21 18 14
77 92 64 51 59 74 76 89 91 96 100 100 100 100 100 94 77 72 74 80 88 80 76 74 79 83 82 84 84 85 82 72 24 18 21 24 20 15
92 92 96 97 76 78 95 100 100 100 100 99 100 100 100 86 77 86 91 92 85 81 83 84 92 95 95 92 92 91 82 75 24 20 23 27 24 16
91 99 99 98 100 100 100 100 100 100 100 100 100 100 100 95 95 93 92 86 84 87 87 89 97 100 100 89 92 90 82 78 23 21 24 28 28 21
100 99 100 100 100 100 100 100 100 100 100 100 100 100 100 100 100 99 98 96 96 94 92 96 95 98 100 96 90 86 87 81 24 24 22 26 33 27
100 100 100 100 100 100 100 100 100 100 100 100 100 100 100 100 100 96 100 100 100 99 98 94 93 98 100 100 100 89 86 85 26 28 25 30 36 33
100 100 100 100 100 100 100 100 100 100 100 100 99 100 100 100 100 99 100 100 100 100 100 96 95 100 100 100 100 98 90 85 25 28 22 24 36 38
100 100 100 100 100 100 100 100 100 100 100 100 100 100 99 100 100 100 100 100 100 100 100 98 97 100 100 100 100 100 96 88 30 28 23 20 26 39
100 100 100 100 100 100 100 100 100 100 100 100 100 100 100 100 100 100 100 100 100 100 100 100 100 98 100 100 100 100 100 100 37 28 25 21 22 29

GFSNE_500_rhum_108.txt.gz
RH
98 100 90 99 89 99 98 98 97 98 96 97 95 95 96 93 96 93 77 72 74 75 73 63 29 26 24 28 32 45 48 26 23 18 17 18 22 20
94 96 94 99 100 98 98 97 97 96 94 88 84 86 96 96 94 91 79 79 79 76 51 34 70 45 65 46 67 58 31 26 21 19 22 23 21 20
97 98 100 99 99 98 97 98 95 90 86 80 69 62 81 80 75 74 81 85 89 61 30 52 60 85 55 87 55 36 30 25 21 24 25 23 23 25
97 97 96 95 98 96 96 96 94 81 90 81 72 62 62 64 72 74 73 67 48 35 48 62 86 62 84 71 40 34 30 24 26 30 27 26 29 31
83 66 57 48 48 30 22 24 24 30 37 38 48 48 51 57 86 81 74 71 56 41 55 80 52 73 86 45 39 35 28 27 34 32 30 34 32 28
37 26 21 17 14 14 13 13 12 12 12 17 31 43 46 52 94 74 72 80 58 66 78 93 65 86 53 44 40 34 30 34 36 35 37 32 28 28
14 13 14 16 16 15 13 13 12 13 16 14 13 32 54 57 75 66 78 100 91 98 97 58 91 62 54 47 39 33 34 38 38 39 37 34 33 31
15 13 15 14 14 16 17 17 20 24 24 25 26 17 40 58 55 72 96 98 85 86 70 99 85 72 59 44 37 34 40 40 41 42 41 38 37 36
10 10 11 14 17 24 28 32 35 39 35 26 27 30 41 62 54 79 95 90 83 94 98 98 96 72 49 41 37 42 43 45 48 48 47 45 42 40
13 20 25 25 31 30 31 33 41 49 41 32 34 41 63 56 74 70 72 94 95 91 100 98 84 55 44 40 43 45 48 51 51 50 49 48 47 41
24 29 38 37 35 36 36 44 53 47 36 38 44 63 59 84 68 61 94 98 98 100 100 90 61 48 45 48 48 52 56 53 54 53 53 53 50 31
38 44 44 41 30 41 60 63 58 44 47 61 62 59 88 85 67 96 90 94 100 100 91 68 54 56 59 54 56 60 60 62 62 62 64 60 46 14
50 50 49 53 50 57 66 64 62 68 72 58 51 78 83 79 84 99 99 100 100 94 78 60 74 73 64 61 60 63 64 68 68 69 68 64 40 15
56 53 57 62 66 73 68 63 60 70 64 48 63 82 99 100 96 100 100 99 96 91 68 82 85 75 67 66 67 64 71 72 73 70 74 68 32 15
66 65 64 70 79 73 61 58 58 53 49 70 93 100 100 100 100 100 100 97 96 82 72 88 92 79 73 72 73 78 80 81 77 78 74 69 42 17
74 66 69 77 87 75 79 82 66 82 87 97 98 99 99 100 100 100 100 95 97 78 78 87 93 82 80 80 88 91 91 81 88 86 80 77 61 20
76 78 76 72 92 93 91 97 96 85 92 98 100 100 100 100 100 100 98 95 94 88 92 94 94 90 92 97 96 89 84 85 89 87 85 90 77 25
85 90 93 95 98 96 100 92 100 100 100 100 100 100 100 100 100 100 98 98 100 100 100 96 93 98 100 100 100 89 86 91 97 96 95 100 87 32
95 89 97 94 90 100 100 100 93 100 100 100 100 100 100 100 100 100 99 100 100 100 100 99 100 100 100 100 100 96 95 98 99 96 97 98 93 31
98 98 98 95 97 100 100 100 100 100 100 100 100 100 100 100 100 98 100 100 100 100 100 100 100 100 100 100 100 96 94 96 93 96 96 96 96 38
86 97 97 98 95 99 100 100 100 100 100 100 99 100 100 100 100 100 100 100 100 100 100 97 100 100 100 100 100 99 93 89 93 98 98 100 100 57
51 85 96 95 98 98 97 97 100 100 100 100 100 100 100 100 100 99 99 100 100 100 100 99 100 100 100 100 100 100 100 89 81 88 97 98 100 97
41 54 93 97 99 100 100 100 100 100 100 100 99 97 100 100 100 100 100 100 100 100 100 100 92 97 100 100 100 100 99 93 84 90 93 86 99 100

GFSNE_500_rhum_111.txt.gz
RH
75 75 89 96 97 98 98 98 96 94 97 97 100 99 98 96 87 89 96 97 93 82 86 84 90 81 80 50 61 32 52 41 61 47 28 22 19 19
68 65 82 96 96 96 97 97 97 98 95 97 98 95 94 93 94 94 96 95 80 78 78 77 66 75 53 43 61 69 65 72 64 31 26 21 21 24
51 86 83 87 96 97 96 98 97 97 95 95 98 92 94 87 88 93 86 84 86 93 77 65 62 44 45 52 79 80 90 65 36 30 24 24 28 26
98 91 94 93 97 93 96 96 96 95 92 94 88 56 22 51 91 69 70 61 65 83 77 67 59 44 48 90 88 96 87 43 35 28 26 30 30 27
96 87 94 98 92 87 48 35 30 30 29 36 18 13 14 21 35 50 52 53 67 76 62 74 64 59 79 88 91 93 61 49 34 30 32 35 31 35
66 68 69 74 66 36 18 15 15 16 19 18 20 20 24 24 21 20 34 56 59 63 61 78 82 92 98 97 99 66 68 42 33 33 37 36 38 35
74 67 48 24 18 15 15 16 17 18 20 17 16 17 19 23 28 30 25 28 62 60 62 80 85 85 72 94 85 78 54 40 35 36 39 40 40 40
20 16 17 18 16 16 15 14 17 14 15 20 23 30 37 35 35 30 31 28 57 57 67 93 81 88 80 98 95 75 47 39 36 41 42 43 44 45
13 12 14 15 14 12 12 12 14 19 22 29 31 35 39 48 43 33 37 56 64 71 90 84 81 91 100 96 91 55 45 39 43 45 45 46 47 44
13 16 18 19 19 21 23 25 30 36 35 34 30 42 56 51 41 41 46 62 61 95 88 74 99 100 100 96 65 51 45 45 48 49 49 50 50 48
19 16 16 17 17 20 27 36 40 38 29 36 49 59 56 48 44 54 66 58 91 87 79 100 100 100 99 76 58 49 48 49 53 54 54 59 57 58
19 21 28 29 30 36 43 47 44 38 38 53 66 66 66 52 64 62 59 98 96 78 100 100 100 100 86 64 54 55 56 56 57 58 64 63 62 60
32 32 37 44 44 45 50 50 53 54 61 70 68 62 69 74 64 58 95 100 100 100 100 100 100 95 70 62 68 66 63 62 63 67 71 68 65 65
44 40 41 46 51 52 55 58 61 64 66 55 55 64 83 61 58 74 89 100 100 97 100 100 99 86 68 81 76 71 67 69 74 77 78 77 70 75
45 45 51 58 56 64 62 67 70 74 75 75 67 64 59 71 88 97 100 100 100 100 100 100 100 76 88 90 84 73 73 78 87 89 88 82 80 81
53 52 51 59 68 67 70 66 70 74 88 94 100 91 86 92 99 96 97 100 100 100 100 99 95 77 88 95 92 76 79 87 96 95 88 84 86 86
52 53 59 66 77 82 92 94 90 92 92 100 95 96 95 98 97 100 100 100 100 100 100 99 95 82 88 92 91 82 89 95 100 100 95 92 90 90
54 55 65 73 77 84 88 94 92 90 99 100 96 100 100 100 100 100 100 100 100 100 100 99 98 96 98 99 92 83 90 98 100 100 97 100 96 80
58 59 55 52 72 92 98 100 91 94 96 100 95 100 100 100 100 100 100 100 100 100 100 99 99 100 100 92 91 90 88 91 97 98 99 100 100 86
76 71 66 67 58 83 99 100 98 99 100 98 100 100 100 100 100 100 100 100 100 100 100 100 99 98 100 97 95 88 85 94 100 100 99 100 100 100
35 41 43 64 68 60 94 100 100 100 100 100 100 98 99 100 100 100 100 100 100 100 100 100 96 100 99 99 100 98 96 93 99 100 100 100 100 99
20 20 21 23 39 44 84 100 100 100 100 100 100 100 99 92 91 93 96 100 100 100 100 99 100 100 100 100 100 100 97 93 92 100 100 100 100 100
28 24 24 26 25 34 53 99 100 100 100 100 100 100 100 100 95 96 100 100 100 100 100 100 100 100 100 100 99 96 96 100 98 93 96 94 100 100

GFSNE_500_rhum_114.txt.gz
RH
15 15 14 14 39 59 70 93 93 97 97 98 96 97 91 93 100 97 98 98 98 94 89 92 94 77 69 62 58 62 36 63 47 60 64 82 40 25
18 15 12 11 10 29 68 91 96 94 93 97 97 98 98 98 96 95 96 97 95 97 96 92 74 77 70 55 59 41 46 52 62 88 82 52 32 23
17 15 14 16 35 72 82 80 77 89 93 96 97 95 96 97 95 97 94 96 77 96 83 67 56 58 59 50 56 46 55 81 92 97 49 39 28 24
16 14 19 29 78 98 92 99 98 100 98 100 95 96 96 62 58 34 20 17 19 27 41 53 50 57 53 55 58 51 75 80 91 79 70 34 28 30
20 17 22 56 81 80 71 80 76 76 76 60 36 23 16 15 17 17 20 21 19 22 24 30 48 65 58 66 84 82 88 96 85 77 58 32 31 36
15 23 35 70 85 78 66 58 59 36 22 15 15 16 16 19 20 19 21 28 30 32 35 31 50 77 64 75 91 83 85 100 90 93 41 33 35 37
32 48 62 80 70 43 31 24 18 17 17 16 17 18 16 19 16 19 24 31 43 43 37 33 52 78 82 91 100 85 86 100 96 69 38 36 39 40
16 16 15 13 10 11 10 10 10 12 13 13 13 12 14 20 26 29 35 35 46 49 41 37 43 71 92 100 100 100 87 100 97 51 40 38 43 43
15 11 9 10 10 11 13 14 16 16 17 20 23 23 25 36 40 37 35 36 55 52 41 41 55 70 88 100 100 100 100 100 81 47 42 45 47 48
13 10 9 9 10 13 18 17 13 14 19 19 22 34 40 39 30 39 52 54 53 45 47 53 64 72 95 99 100 100 100 98 63 47 46 50 52 51
12 10 10 10 17 22 18 21 25 28 30 31 40 45 42 36 40 51 61 65 52 55 62 67 67 94 98 98 100 100 100 86 56 49 52 55 56 54
11 14 13 19 26 26 30 31 30 34 38 41 48 47 47 48 60 69 66 71 74 70 63 67 83 96 96 100 99 100 97 71 55 55 56 60 60 58
14 13 21 30 27 29 33 31 33 38 41 49 50 49 47 57 54 60 70 77 71 69 82 87 100 100 100 100 100 100 87 66 61 62 65 64 64 64
14 20 28 32 31 27 32 34 36 44 53 57 60 59 66 67 64 62 64 65 61 77 92 100 100 100 100 100 99 98 85 75 72 72 70 67 69 72
20 26 33 34 33 36 37 36 38 52 60 63 61 65 67 90 97 88 78 82 84 93 100 100 100 100 100 100 96 96 94 84 82 79 75 76 78 84
27 40 39 37 41 47 40 43 49 58 66 82 80 79 84 87 92 99 96 100 100 100 100 100 100 100 100 100 97 97 99 95 90 85 83 83 84 87
48 54 50 49 53 53 47 47 53 60 68 89 96 93 95 92 98 97 100 100 100 100 100 100 100 100 100 99 96 98 100 100 100 94 95 96 87 85
55 56 56 57 59 57 56 60 55 56 79 93 99 98 100 100 99 95 96 98 100 100 100 100 100 100 100 100 97 99 99 98 100 100 98 95 88 84
59 63 60 59 65 71 71 70 70 64 69 91 99 100 100 100 100 96 96 100 100 100 100 100 100 100 100 99 100 100 100 100 100 100 100 100 99 81
49 40 28 20 22 34 48 54 54 75 68 88 99 99 100 100 100 99 100 100 96 91 95 100 99 100 100 100 100 93 98 100 100 100 100 100 99 96
19 22 26 28 26 21 17 17 19 44 47 81 100 100 100 100 100 100 100 100 100 98 97 100 96 100 100 100 100 97 98 100 100 100 100 95 95 100
30 31 31 32 33 33 30 26 21 22 30 52 100 100 100 100 100 100 100 100 100 100 100 100 98 100 100 100 100 100 100 100 97 94 100 100 100 100
37 40 43 48 45 40 37 29 24 27 28 33 55 99 100 100 100 100 99 97 100 100 100 100 97 100 100 100 100 100 100 97 88 91 98 99 100 100

GFSNE_500_rhum_120.txt.gz
RH
61 70 32 35 35 36 33 27 21 15 12 12 12 11 17 39 70 89 63 67 75 87 89 100 97 99 89 77 90 93 87 53 49 51 44 48 47 53
89 34 36 35 41 41 36 28 19 15 14 13 12 16 25 61 93 75 64 80 99 96 86 58 36 30 26 24 29 28 27 39 50 49 45 47 60 71
46 40 44 40 43 42 33 26 20 16 15 14 15 19 36 47 56 52 55 57 53 34 21 15 16 18 17 19 17 25 27 28 44 55 54 57 72 83
69 50 44 42 39 27 24 23 20 19 17 14 14 27 42 27 18 13 12 11 11 11 12 14 15 14 12 13 15 24 26 33 40 66 61 83 91 86
49 45 41 38 20 25 26 23 21 18 16 18 21 18 11 10 9 8 7 7 7 9 13 14 16 16 18 22 28 31 38 40 62 95 82 87 94 94
43 36 38 34 20 26 25 20 16 15 12 10 10 11 10 10 8 6 6 9 11 10 12 17 22 24 30 37 40 37 45 45 52 98 100 96 96 99
31 35 37 27 22 23 16 16 14 11 9 11 12 13 12 7 5 6 11 10 9 11 20 25 30 40 46 46 44 43 56 50 49 86 100 97 94 99
38 39 41 28 23 15 15 15 14 12 12 12 14 13 6 6 8 11 10 8 13 18 25 40 49 49 46 48 51 58 62 54 65 99 100 97 100 100
41 40 33 25 16 13 15 17 15 14 13 14 14 7 8 10 11 11 10 9 15 19 31 48 50 50 57 61 63 60 61 61 71 94 100 100 100 97
40 32 24 18 13 14 17 20 17 17 16 16 8 9 13 12 11 11 12 16 24 32 46 50 53 63 72 75 76 78 67 72 80 97 100 100 98 99
32 26 23 15 13 18 23 22 19 19 17 14 9 10 12 12 14 15 16 25 33 42 49 46 51 53 61 67 80 79 73 85 96 100 100 100 100 100
34 31 22 14 16 26 26 23 23 21 19 14 10 11 13 15 17 17 19 31 39 50 57 53 58 57 67 76 82 76 81 96 99 100 100 100 100 100
34 26 17 24 30 32 26 27 26 24 22 15 12 15 18 18 21 24 28 30 44 58 62 65 68 71 66 74 87 95 100 100 100 99 100 100 100 100
26 21 32 38 36 32 30 31 28 24 17 14 15 21 18 16 30 36 34 35 54 68 70 72 79 76 78 67 77 96 100 100 100 100 100 100 100 100
33 39 41 40 38 35 37 32 27 19 17 20 22 19 18 27 37 40 43 49 68 82 89 95 88 88 95 97 100 100 100 100 100 100 100 100 100 99
53 50 47 45 44 44 37 30 24 21 24 30 26 29 31 33 42 46 58 61 70 88 89 100 100 97 100 100 100 96 100 100 100 99 100 100 100 99
62 60 64 70 71 50 34 32 30 29 35 35 34 35 36 41 47 60 65 67 71 87 98 99 98 100 97 100 100 100 100 100 100 100 100 100 100 99
95 96 83 69 52 42 40 34 37 40 44 41 35 34 36 33 29 39 54 63 69 85 95 100 100 100 100 100 100 100 100 100 100 100 100 100 100 100
100 83 64 58 52 48 42 43 46 47 44 25 23 31 31 29 28 24 24 26 47 75 96 98 97 100 100 100 100 100 100 99 100 98 100 100 100 100
91 83 69 56 53 53 48 51 47 31 19 23 29 35 40 41 40 36 32 24 22 44 82 98 95 99 100 100 100 100 100 100 100 100 100 100 100 100
94 79 67 66 59 54 51 36 22 24 34 39 38 36 34 38 42 42 38 34 29 26 54 81 93 100 100 100 100 100 100 100 100 99 100 100 100 100
95 89 76 66 57 38 26 24 25 26 26 28 34 39 42 44 48 47 46 40 32 29 30 58 90 99 100 98 99 100 100 100 100 100 100 100 100 100
97 95 84 64 43 29 30 35 50 56 53 51 45 34 31 30 31 33 40 43 40 32 34 38 65 100 100 100 100 100 100 100 100 100 100 100 100 100